Wetterdaten: Sonntag, 08.08.2021
Datum Zeit Temp. Aussen Temp. o. S. Temp +5cm Feuchte Auss Luftdruck Regen Sonnenschein Regendauer Solar Windben Empfang
08.08.2021 00:00 17,4 C 16,7 C 14,5 C 83 % 1003,4 hPa 0,0 l/m 0 min 0 min 0 W/m 22,5 km/h (4 Bft) 95,74 %
08.08.2021 00:02 17,4 C 16,7 C 14,5 C 83 % 1003,4 hPa 0,0 l/m 0 min 0 min 0 W/m 35,4 km/h (5 Bft) 95,56 %
08.08.2021 00:04 17,4 C 16,7 C 14,5 C 83 % 1003,5 hPa 0,0 l/m 0 min 0 min 0 W/m 22,5 km/h (4 Bft) 95,74 %
08.08.2021 00:07 17,4 C 16,7 C 14,5 C 83 % 1003,5 hPa 0,0 l/m 0 min 0 min 0 W/m 19,3 km/h (3 Bft) 97,18 %
08.08.2021 00:08 17,4 C 16,7 C 14,5 C 83 % 1003,5 hPa 0,0 l/m 0 min 0 min 0 W/m 16,1 km/h (3 Bft) 91,30 %
08.08.2021 00:10 17,4 C 16,7 C 14,5 C 83 % 1003,5 hPa 0,0 l/m 0 min 0 min 0 W/m 12,9 km/h (3 Bft) 95,74 %
08.08.2021 00:12 17,4 C 16,7 C 14,5 C 83 % 1003,5 hPa 0,0 l/m 0 min 0 min 0 W/m 16,1 km/h (3 Bft) 95,74 %
08.08.2021 00:14 17,4 C 16,7 C 14,5 C 83 % 1003,5 hPa 0,0 l/m 0 min 0 min 0 W/m 19,3 km/h (3 Bft) 95,74 %
08.08.2021 00:16 17,3 C 16,7 C 14,5 C 83 % 1003,5 hPa 0,0 l/m 0 min 0 min 0 W/m 25,7 km/h (4 Bft) 95,74 %
08.08.2021 00:18 17,3 C 16,7 C 14,5 C 83 % 1003,5 hPa 0,0 l/m 0 min 0 min 0 W/m 19,3 km/h (3 Bft) 91,49 %
08.08.2021 00:20 17,3 C 16,7 C 14,5 C 83 % 1003,5 hPa 0,0 l/m 0 min 0 min 0 W/m 19,3 km/h (3 Bft) 95,65 %
08.08.2021 00:22 17,3 C 16,7 C 14,5 C 83 % 1003,5 hPa 0,0 l/m 0 min 0 min 0 W/m 19,3 km/h (3 Bft) 95,74 %
08.08.2021 00:24 17,3 C 16,7 C 14,5 C 83 % 1003,5 hPa 0,0 l/m 0 min 0 min 0 W/m 16,1 km/h (3 Bft) 95,74 %
08.08.2021 00:26 17,3 C 16,7 C 14,5 C 83 % 1003,6 hPa 0,0 l/m 0 min 0 min 0 W/m 16,1 km/h (3 Bft) 95,74 %
08.08.2021 00:28 17,2 C 16,7 C 14,5 C 82 % 1003,6 hPa 0,0 l/m 0 min 0 min 0 W/m 12,9 km/h (3 Bft) 97,87 %
08.08.2021 00:30 17,2 C 16,7 C 14,5 C 82 % 1003,6 hPa 0,0 l/m 0 min 0 min 0 W/m 19,3 km/h (3 Bft) 97,87 %
08.08.2021 00:32 17,2 C 16,7 C 14,5 C 82 % 1003,6 hPa 0,0 l/m 0 min 0 min 0 W/m 25,7 km/h (4 Bft) 97,83 %
08.08.2021 00:34 17,2 C 16,7 C 14,5 C 82 % 1003,6 hPa 0,0 l/m 0 min 0 min 0 W/m 19,3 km/h (3 Bft) 95,74 %
08.08.2021 00:36 17,2 C 16,7 C 14,5 C 82 % 1003,6 hPa 0,0 l/m 0 min 0 min 0 W/m 16,1 km/h (3 Bft) 97,87 %
08.08.2021 00:38 17,2 C 16,7 C 14,5 C 82 % 1003,7 hPa 0,0 l/m 0 min 0 min 0 W/m 22,5 km/h (4 Bft) 97,87 %
08.08.2021 00:40 17,1 C 16,7 C 14,5 C 82 % 1003,7 hPa 0,0 l/m 0 min 0 min 0 W/m 19,3 km/h (3 Bft) 97,87 %
08.08.2021 00:42 17,1 C 16,7 C 14,5 C 82 % 1003,7 hPa 0,0 l/m 0 min 0 min 0 W/m 25,7 km/h (4 Bft) 97,87 %
08.08.2021 00:44 17,1 C 16,1 C 14,5 C 82 % 1003,7 hPa 0,0 l/m 0 min 0 min 0 W/m 16,1 km/h (3 Bft) 97,83 %
08.08.2021 00:46 17,1 C 16,1 C 14,5 C 82 % 1003,7 hPa 0,0 l/m 0 min 0 min 0 W/m 25,7 km/h (4 Bft) 97,87 %
08.08.2021 00:48 17,1 C 16,1 C 14,5 C 82 % 1003,7 hPa 0,0 l/m 0 min 0 min 0 W/m 38,6 km/h (5 Bft) 97,87 %
08.08.2021 00:50 17,0 C 16,1 C 14,5 C 82 % 1003,7 hPa 0,0 l/m 0 min 0 min 0 W/m 35,4 km/h (5 Bft) 97,87 %
08.08.2021 00:52 17,0 C 16,1 C 14,5 C 82 % 1003,7 hPa 0,0 l/m 0 min 0 min 0 W/m 16,1 km/h (3 Bft) 97,87 %
08.08.2021 00:54 17,0 C 16,1 C 14,5 C 82 % 1003,7 hPa 0,0 l/m 0 min 0 min 0 W/m 35,4 km/h (5 Bft) 100,00 %
08.08.2021 00:56 17,0 C 16,1 C 14,5 C 82 % 1003,7 hPa 0,0 l/m 0 min 0 min 0 W/m 22,5 km/h (4 Bft) 97,83 %
08.08.2021 00:58 17,0 C 16,1 C 13,9 C 82 % 1003,7 hPa 0,0 l/m 0 min 0 min 0 W/m 19,3 km/h (3 Bft) 93,62 %
08.08.2021 01:00 17,0 C 16,1 C 13,9 C 82 % 1003,7 hPa 0,0 l/m 0 min 0 min 0 W/m 22,5 km/h (4 Bft) 100,00 %
08.08.2021 01:02 16,9 C 16,1 C 13,9 C 82 % 1003,8 hPa 0,0 l/m 0 min 0 min 0 W/m 19,3 km/h (3 Bft) 97,87 %
08.08.2021 01:04 16,9 C 16,1 C 13,9 C 82 % 1003,8 hPa 0,0 l/m 0 min 0 min 0 W/m 12,9 km/h (3 Bft) 100,00 %
08.08.2021 01:06 16,9 C 16,1 C 13,9 C 82 % 1003,7 hPa 0,0 l/m 0 min 0 min 0 W/m 19,3 km/h (3 Bft) 97,87 %
08.08.2021 01:08 16,9 C 16,1 C 13,9 C 82 % 1003,8 hPa 0,0 l/m 0 min 0 min 0 W/m 22,5 km/h (4 Bft) 97,83 %
08.08.2021 01:10 16,9 C 16,1 C 13,9 C 82 % 1003,9 hPa 0,0 l/m 0 min 0 min 0 W/m 16,1 km/h (3 Bft) 100,00 %
08.08.2021 01:12 16,8 C 16,1 C 13,9 C 82 % 1003,8 hPa 0,0 l/m 0 min 0 min 0 W/m 22,5 km/h (4 Bft) 100,00 %
08.08.2021 01:14 16,8 C 16,1 C 13,9 C 82 % 1003,9 hPa 0,0 l/m 0 min 0 min 0 W/m 25,7 km/h (4 Bft) 100,00 %
08.08.2021 01:16 16,8 C 16,1 C 13,9 C 82 % 1003,8 hPa 0,0 l/m 0 min 0 min 0 W/m 16,1 km/h (3 Bft) 100,00 %
08.08.2021 01:18 16,8 C 16,1 C 13,9 C 82 % 1003,8 hPa 0,0 l/m 0 min 0 min 0 W/m 16,1 km/h (3 Bft) 100,00 %
08.08.2021 01:20 16,9 C 16,1 C 14,5 C 82 % 1003,9 hPa 0,0 l/m 0 min 0 min 0 W/m 25,7 km/h (4 Bft) 100,00 %
08.08.2021 01:22 16,9 C 16,1 C 14,5 C 82 % 1003,9 hPa 0,0 l/m 0 min 0 min 0 W/m 32,2 km/h (5 Bft) 100,00 %
08.08.2021 01:24 16,9 C 16,1 C 14,5 C 82 % 1003,9 hPa 0,0 l/m 0 min 0 min 0 W/m 35,4 km/h (5 Bft) 100,00 %
08.08.2021 01:26 16,9 C 16,1 C 13,9 C 83 % 1004,0 hPa 0,0 l/m 0 min 0 min 0 W/m 41,8 km/h (6 Bft) 100,00 %
08.08.2021 01:28 16,9 C 16,1 C 13,9 C 83 % 1004,0 hPa 0,0 l/m 0 min 0 min 0 W/m 22,5 km/h (4 Bft) 100,00 %
08.08.2021 01:30 16,9 C 16,1 C 13,9 C 83 % 1004,0 hPa 0,0 l/m 0 min 0 min 0 W/m 19,3 km/h (3 Bft) 100,00 %
08.08.2021 01:32 16,9 C 16,1 C 13,9 C 83 % 1004,0 hPa 0,0 l/m 0 min 0 min 0 W/m 22,5 km/h (4 Bft) 97,83 %
08.08.2021 01:34 16,8 C 16,1 C 13,9 C 83 % 1004,0 hPa 0,0 l/m 0 min 0 min 0 W/m 19,3 km/h (3 Bft) 100,00 %
08.08.2021 01:36 16,9 C 16,1 C 13,9 C 83 % 1004,0 hPa 0,0 l/m 0 min 2 min 0 W/m 25,7 km/h (4 Bft) 100,00 %
08.08.2021 01:38 16,8 C 16,1 C 13,4 C 84 % 1004,1 hPa 0,0 l/m 0 min 2 min 0 W/m 25,7 km/h (4 Bft) 100,00 %
08.08.2021 01:40 16,8 C 15,6 C 12,8 C 84 % 1004,1 hPa 0,0 l/m 0 min 2 min 0 W/m 25,7 km/h (4 Bft) 100,00 %
08.08.2021 01:42 16,8 C 15,6 C 12,8 C 85 % 1004,1 hPa 0,0 l/m 0 min 2 min 0 W/m 19,3 km/h (3 Bft) 100,00 %
08.08.2021 01:44 16,7 C 15,6 C 12,8 C 85 % 1004,1 hPa 0,0 l/m 0 min 2 min 0 W/m 22,5 km/h (4 Bft) 100,00 %
08.08.2021 01:46 16,6 C 15,6 C 12,8 C 85 % 1004,1 hPa 0,0 l/m 0 min 2 min 0 W/m 19,3 km/h (3 Bft) 100,00 %
08.08.2021 01:48 16,6 C 15,6 C 12,8 C 85 % 1004,1 hPa 0,0 l/m 0 min 2 min 0 W/m 19,3 km/h (3 Bft) 100,00 %
08.08.2021 01:50 16,6 C 15,6 C 12,8 C 85 % 1004,1 hPa 0,0 l/m 0 min 2 min 0 W/m 25,7 km/h (4 Bft) 97,87 %
08.08.2021 01:52 16,6 C 15,6 C 12,8 C 86 % 1004,1 hPa 0,0 l/m 0 min 2 min 0 W/m 25,7 km/h (4 Bft) 97,87 %
08.08.2021 01:54 16,5 C 15,6 C 12,8 C 86 % 1004,2 hPa 0,0 l/m 0 min 2 min 0 W/m 45,1 km/h (6 Bft) 97,87 %
08.08.2021 01:56 16,5 C 15,6 C 12,8 C 86 % 1004,1 hPa 0,0 l/m 0 min 2 min 0 W/m 19,3 km/h (3 Bft) 97,83 %
08.08.2021 01:58 16,5 C 15,6 C 12,8 C 86 % 1004,1 hPa 0,0 l/m 0 min 2 min 0 W/m 16,1 km/h (3 Bft) 95,74 %
08.08.2021 02:00 16,5 C 15,6 C 12,3 C 87 % 1004,2 hPa 0,2 l/m 0 min 2 min 0 W/m 25,7 km/h (4 Bft) 97,87 %
08.08.2021 02:02 16,5 C 15,6 C 12,8 C 87 % 1004,2 hPa 0,0 l/m 0 min 2 min 0 W/m 12,9 km/h (3 Bft) 95,74 %
08.08.2021 02:04 16,4 C 15,6 C 12,8 C 87 % 1004,2 hPa 0,0 l/m 0 min 2 min 0 W/m 25,7 km/h (4 Bft) 95,74 %
08.08.2021 02:06 16,4 C 15,6 C 12,8 C 87 % 1004,2 hPa 0,0 l/m 0 min 2 min 0 W/m 35,4 km/h (5 Bft) 97,87 %
08.08.2021 02:08 16,4 C 15,6 C 12,8 C 87 % 1004,2 hPa 0,0 l/m 0 min 2 min 0 W/m 22,5 km/h (4 Bft) 95,65 %
08.08.2021 02:10 16,3 C 15,6 C 12,8 C 87 % 1004,2 hPa 0,0 l/m 0 min 0 min 0 W/m 41,8 km/h (6 Bft) 95,74 %
08.08.2021 02:12 16,3 C 15,6 C 12,8 C 88 % 1004,2 hPa 0,0 l/m 0 min 0 min 0 W/m 22,5 km/h (4 Bft) 93,62 %
08.08.2021 02:14 16,3 C 15,6 C 12,8 C 88 % 1004,2 hPa 0,0 l/m 0 min 0 min 0 W/m 25,7 km/h (4 Bft) 93,62 %
08.08.2021 02:16 16,3 C 15,6 C 12,8 C 88 % 1004,2 hPa 0,0 l/m 0 min 0 min 0 W/m 32,2 km/h (5 Bft) 93,62 %
08.08.2021 02:18 16,3 C 15,6 C 12,8 C 88 % 1004,2 hPa 0,0 l/m 0 min 0 min 0 W/m 22,5 km/h (4 Bft) 95,65 %
08.08.2021 02:20 16,3 C 15,6 C 12,8 C 88 % 1004,2 hPa 0,0 l/m 0 min 0 min 0 W/m 16,1 km/h (3 Bft) 95,74 %
08.08.2021 02:22 16,3 C 15,6 C 12,8 C 88 % 1004,2 hPa 0,0 l/m 0 min 0 min 0 W/m 25,7 km/h (4 Bft) 97,87 %
08.08.2021 02:24 16,3 C 15,6 C 13,4 C 88 % 1004,2 hPa 0,0 l/m 0 min 0 min 0 W/m 25,7 km/h (4 Bft) 97,87 %
08.08.2021 02:26 16,3 C 15,6 C 13,4 C 88 % 1004,2 hPa 0,0 l/m 0 min 0 min 0 W/m 22,5 km/h (4 Bft) 97,87 %
08.08.2021 02:28 16,3 C 15,6 C 13,4 C 88 % 1004,2 hPa 0,0 l/m 0 min 0 min 0 W/m 25,7 km/h (4 Bft) 93,62 %
08.08.2021 02:30 16,3 C 15,6 C 13,4 C 88 % 1004,3 hPa 0,0 l/m 0 min 0 min 0 W/m 29,0 km/h (5 Bft) 97,83 %
08.08.2021 02:32 16,4 C 15,6 C 13,4 C 87 % 1004,3 hPa 0,0 l/m 0 min 0 min 0 W/m 25,7 km/h (4 Bft) 97,87 %
08.08.2021 02:34 16,4 C 15,6 C 13,4 C 87 % 1004,2 hPa 0,0 l/m 0 min 0 min 0 W/m 29,0 km/h (5 Bft) 97,87 %
08.08.2021 02:36 16,4 C 15,6 C 13,4 C 87 % 1004,3 hPa 0,0 l/m 0 min 0 min 0 W/m 25,7 km/h (4 Bft) 97,87 %
08.08.2021 02:38 16,4 C 15,6 C 13,4 C 87 % 1004,3 hPa 0,0 l/m 0 min 0 min 0 W/m 25,7 km/h (4 Bft) 97,87 %
08.08.2021 02:40 16,4 C 15,6 C 13,4 C 87 % 1004,3 hPa 0,0 l/m 0 min 0 min 0 W/m 32,2 km/h (5 Bft) 97,87 %
08.08.2021 02:42 16,4 C 15,6 C 13,4 C 87 % 1004,4 hPa 0,0 l/m 0 min 0 min 0 W/m 25,7 km/h (4 Bft) 95,65 %
08.08.2021 02:44 16,4 C 15,6 C 13,4 C 87 % 1004,3 hPa 0,0 l/m 0 min 0 min 0 W/m 29,0 km/h (5 Bft) 97,87 %
08.08.2021 02:46 16,4 C 15,6 C 13,4 C 87 % 1004,4 hPa 0,0 l/m 0 min 0 min 0 W/m 9,7 km/h (2 Bft) 97,87 %
08.08.2021 02:48 16,4 C 15,6 C 13,4 C 87 % 1004,4 hPa 0,0 l/m 0 min 0 min 0 W/m 19,3 km/h (3 Bft) 97,87 %
08.08.2021 02:50 16,4 C 15,6 C 13,9 C 87 % 1004,4 hPa 0,0 l/m 0 min 0 min 0 W/m 38,6 km/h (5 Bft) 97,87 %
08.08.2021 02:52 16,5 C 16,1 C 13,9 C 86 % 1004,4 hPa 0,0 l/m 0 min 0 min 0 W/m 22,5 km/h (4 Bft) 97,87 %
08.08.2021 02:54 16,5 C 16,1 C 13,9 C 86 % 1004,5 hPa 0,0 l/m 0 min 0 min 0 W/m 16,1 km/h (3 Bft) 95,65 %
08.08.2021 02:56 16,5 C 16,1 C 13,9 C 86 % 1004,5 hPa 0,0 l/m 0 min 0 min 0 W/m 25,7 km/h (4 Bft) 97,87 %
08.08.2021 02:58 16,5 C 16,1 C 13,9 C 86 % 1004,4 hPa 0,0 l/m 0 min 0 min 0 W/m 29,0 km/h (5 Bft) 100,00 %
08.08.2021 03:00 16,5 C 16,1 C 13,9 C 86 % 1004,4 hPa 0,0 l/m 0 min 0 min 0 W/m 32,2 km/h (5 Bft) 97,87 %
08.08.2021 03:02 16,5 C 16,1 C 13,9 C 86 % 1004,4 hPa 0,0 l/m 0 min 0 min 0 W/m 22,5 km/h (4 Bft) 97,87 %
08.08.2021 03:04 16,5 C 16,1 C 13,9 C 85 % 1004,5 hPa 0,0 l/m 0 min 0 min 0 W/m 25,7 km/h (4 Bft) 97,87 %
08.08.2021 03:06 16,5 C 16,1 C 13,9 C 85 % 1004,4 hPa 0,0 l/m 0 min 0 min 0 W/m 45,1 km/h (6 Bft) 97,83 %
08.08.2021 03:08 16,6 C 16,1 C 13,9 C 85 % 1004,4 hPa 0,0 l/m 0 min 0 min 0 W/m 22,5 km/h (4 Bft) 100,00 %
08.08.2021 03:10 16,6 C 16,1 C 13,9 C 85 % 1004,3 hPa 0,0 l/m 0 min 0 min 0 W/m 29,0 km/h (5 Bft) 95,74 %
08.08.2021 03:12 16,6 C 16,1 C 13,9 C 85 % 1004,3 hPa 0,0 l/m 0 min 0 min 0 W/m 35,4 km/h (5 Bft) 97,87 %
08.08.2021 03:14 16,6 C 16,1 C 13,9 C 85 % 1004,3 hPa 0,0 l/m 0 min 0 min 0 W/m 35,4 km/h (5 Bft) 95,74 %
08.08.2021 03:16 16,6 C 16,1 C 13,9 C 85 % 1004,5 hPa 0,0 l/m 0 min 0 min 0 W/m 25,7 km/h (4 Bft) 93,62 %
08.08.2021 03:18 16,6 C 16,1 C 13,9 C 85 % 1004,4 hPa 0,0 l/m 0 min 0 min 0 W/m 25,7 km/h (4 Bft) 97,83 %
08.08.2021 03:20 16,6 C 16,1 C 13,9 C 85 % 1004,5 hPa 0,0 l/m 0 min 0 min 0 W/m 19,3 km/h (3 Bft) 97,87 %
08.08.2021 03:22 16,6 C 16,1 C 13,9 C 84 % 1004,5 hPa 0,0 l/m 0 min 0 min 0 W/m 35,4 km/h (5 Bft) 97,87 %
08.08.2021 03:24 16,6 C 16,1 C 13,9 C 84 % 1004,5 hPa 0,0 l/m 0 min 0 min 0 W/m 32,2 km/h (5 Bft) 97,37 %
08.08.2021 03:26 16,6 C 16,1 C 13,9 C 84 % 1004,6 hPa 0,0 l/m 0 min 0 min 0 W/m 29,0 km/h (5 Bft) 97,87 %
08.08.2021 03:28 16,6 C 16,1 C 13,9 C 84 % 1004,6 hPa 0,0 l/m 0 min 0 min 0 W/m 29,0 km/h (5 Bft) 97,83 %
08.08.2021 03:30 16,6 C 16,1 C 13,9 C 84 % 1004,7 hPa 0,0 l/m 0 min 0 min 0 W/m 32,2 km/h (5 Bft) 97,87 %
08.08.2021 03:32 16,7 C 16,1 C 13,9 C 84 % 1004,7 hPa 0,0 l/m 0 min 0 min 0 W/m 32,2 km/h (5 Bft) 93,62 %
08.08.2021 03:34 16,7 C 16,1 C 13,9 C 84 % 1004,7 hPa 0,0 l/m 0 min 0 min 0 W/m 16,1 km/h (3 Bft) 97,87 %
08.08.2021 03:36 16,7 C 16,1 C 13,9 C 84 % 1004,7 hPa 0,0 l/m 0 min 0 min 0 W/m 38,6 km/h (5 Bft) 97,87 %
08.08.2021 03:38 16,6 C 16,1 C 13,9 C 84 % 1004,8 hPa 0,0 l/m 0 min 0 min 0 W/m 25,7 km/h (4 Bft) 97,87 %
08.08.2021 03:40 16,7 C 16,1 C 13,9 C 84 % 1004,8 hPa 0,0 l/m 0 min 0 min 0 W/m 32,2 km/h (5 Bft) 97,83 %
08.08.2021 03:42 16,6 C 16,1 C 13,9 C 84 % 1004,8 hPa 0,0 l/m 0 min 0 min 0 W/m 35,4 km/h (5 Bft) 97,87 %
08.08.2021 03:44 16,6 C 16,1 C 13,9 C 84 % 1004,8 hPa 0,0 l/m 0 min 0 min 0 W/m 35,4 km/h (5 Bft) 95,74 %
08.08.2021 03:46 16,6 C 16,1 C 13,9 C 84 % 1004,8 hPa 0,0 l/m 0 min 0 min 0 W/m 22,5 km/h (4 Bft) 95,74 %
08.08.2021 03:48 16,7 C 16,1 C 13,9 C 84 % 1004,8 hPa 0,0 l/m 0 min 0 min 0 W/m 41,8 km/h (6 Bft) 95,74 %
08.08.2021 03:50 16,6 C 16,1 C 13,9 C 84 % 1004,9 hPa 0,0 l/m 0 min 0 min 0 W/m 16,1 km/h (3 Bft) 97,87 %
08.08.2021 03:52 16,6 C 16,1 C 13,9 C 84 % 1004,9 hPa 0,0 l/m 0 min 0 min 0 W/m 29,0 km/h (5 Bft) 93,48 %
08.08.2021 03:54 16,6 C 16,1 C 13,9 C 84 % 1005,0 hPa 0,0 l/m 0 min 0 min 0 W/m 22,5 km/h (4 Bft) 97,87 %
08.08.2021 03:56 16,6 C 16,1 C 13,9 C 83 % 1004,8 hPa 0,0 l/m 0 min 0 min 0 W/m 22,5 km/h (4 Bft) 95,74 %
08.08.2021 03:58 16,6 C 16,1 C 13,9 C 83 % 1004,9 hPa 0,0 l/m 0 min 0 min 0 W/m 35,4 km/h (5 Bft) 97,87 %
08.08.2021 04:00 16,6 C 16,1 C 13,9 C 84 % 1004,9 hPa 0,0 l/m 0 min 0 min 0 W/m 22,5 km/h (4 Bft) 97,87 %
08.08.2021 04:02 16,6 C 16,1 C 13,9 C 83 % 1005,0 hPa 0,0 l/m 0 min 0 min 0 W/m 19,3 km/h (3 Bft) 100,00 %
08.08.2021 04:04 16,6 C 16,1 C 13,9 C 83 % 1004,9 hPa 0,0 l/m 0 min 0 min 0 W/m 41,8 km/h (6 Bft) 100,00 %
08.08.2021 04:06 16,6 C 16,1 C 13,9 C 83 % 1005,0 hPa 0,0 l/m 0 min 0 min 0 W/m 38,6 km/h (5 Bft) 97,87 %
08.08.2021 04:08 16,6 C 16,1 C 13,9 C 83 % 1004,9 hPa 0,0 l/m 0 min 0 min 0 W/m 29,0 km/h (5 Bft) 97,87 %
08.08.2021 04:10 16,6 C 16,1 C 13,9 C 83 % 1004,9 hPa 0,0 l/m 0 min 0 min 0 W/m 22,5 km/h (4 Bft) 97,87 %
08.08.2021 04:12 16,6 C 16,1 C 13,9 C 83 % 1005,0 hPa 0,0 l/m 0 min 0 min 0 W/m 29,0 km/h (5 Bft) 97,87 %
08.08.2021 04:14 16,6 C 16,1 C 13,9 C 83 % 1004,9 hPa 0,0 l/m 0 min 0 min 0 W/m 25,7 km/h (4 Bft) 97,83 %
08.08.2021 04:16 16,6 C 16,1 C 13,9 C 82 % 1005,0 hPa 0,0 l/m 0 min 0 min 0 W/m 41,8 km/h (6 Bft) 97,87 %
08.08.2021 04:18 16,6 C 16,1 C 13,9 C 82 % 1004,9 hPa 0,0 l/m 0 min 0 min 0 W/m 35,4 km/h (5 Bft) 100,00 %
08.08.2021 04:20 16,6 C 16,1 C 13,9 C 82 % 1005,1 hPa 0,0 l/m 0 min 0 min 0 W/m 25,7 km/h (4 Bft) 97,87 %
08.08.2021 04:22 16,6 C 16,1 C 13,9 C 82 % 1005,0 hPa 0,0 l/m 0 min 0 min 0 W/m 35,4 km/h (5 Bft) 100,00 %
08.08.2021 04:24 16,6 C 16,1 C 13,9 C 82 % 1005,0 hPa 0,0 l/m 0 min 0 min 0 W/m 32,2 km/h (5 Bft) 100,00 %
08.08.2021 04:26 16,6 C 16,1 C 13,9 C 83 % 1004,9 hPa 0,0 l/m 0 min 0 min 0 W/m 12,9 km/h (3 Bft) 100,00 %
08.08.2021 04:28 16,6 C 16,1 C 13,9 C 82 % 1005,1 hPa 0,0 l/m 0 min 0 min 0 W/m 25,7 km/h (4 Bft) 100,00 %
08.08.2021 04:30 16,6 C 16,1 C 13,9 C 82 % 1005,1 hPa 0,0 l/m 0 min 0 min 0 W/m 19,3 km/h (3 Bft) 100,00 %
08.08.2021 04:32 16,6 C 16,1 C 13,9 C 83 % 1005,1 hPa 0,0 l/m 0 min 0 min 0 W/m 22,5 km/h (4 Bft) 100,00 %
08.08.2021 04:34 16,5 C 16,1 C 13,9 C 82 % 1005,2 hPa 0,0 l/m 0 min 0 min 0 W/m 29,0 km/h (5 Bft) 100,00 %
08.08.2021 04:36 16,5 C 16,1 C 13,9 C 82 % 1005,2 hPa 0,0 l/m 0 min 0 min 0 W/m 35,4 km/h (5 Bft) 100,00 %
08.08.2021 04:38 16,5 C 16,1 C 13,9 C 82 % 1005,1 hPa 0,0 l/m 0 min 0 min 0 W/m 25,7 km/h (4 Bft) 100,00 %
08.08.2021 04:40 16,5 C 16,1 C 13,9 C 82 % 1005,1 hPa 0,0 l/m 0 min 0 min 0 W/m 19,3 km/h (3 Bft) 100,00 %
08.08.2021 04:42 16,5 C 15,6 C 13,9 C 82 % 1005,2 hPa 0,0 l/m 0 min 0 min 0 W/m 19,3 km/h (3 Bft) 100,00 %
08.08.2021 04:44 16,5 C 15,6 C 13,9 C 82 % 1005,2 hPa 0,0 l/m 0 min 0 min 0 W/m 35,4 km/h (5 Bft) 97,87 %
08.08.2021 04:46 16,5 C 15,6 C 13,9 C 82 % 1005,3 hPa 0,0 l/m 0 min 0 min 0 W/m 16,1 km/h (3 Bft) 100,00 %
08.08.2021 04:48 16,5 C 15,6 C 13,9 C 82 % 1005,3 hPa 0,0 l/m 0 min 0 min 0 W/m 22,5 km/h (4 Bft) 100,00 %
08.08.2021 04:50 16,5 C 15,6 C 13,9 C 82 % 1005,3 hPa 0,0 l/m 0 min 0 min 0 W/m 19,3 km/h (3 Bft) 100,00 %
08.08.2021 04:52 16,5 C 15,6 C 13,9 C 82 % 1005,4 hPa 0,0 l/m 0 min 0 min 0 W/m 12,9 km/h (3 Bft) 100,00 %
08.08.2021 04:54 16,5 C 15,6 C 13,9 C 82 % 1005,3 hPa 0,0 l/m 0 min 0 min 0 W/m 41,8 km/h (6 Bft) 97,87 %
08.08.2021 04:56 16,4 C 15,6 C 13,9 C 82 % 1005,4 hPa 0,0 l/m 0 min 0 min 0 W/m 22,5 km/h (4 Bft) 100,00 %
08.08.2021 04:58 16,4 C 15,6 C 13,9 C 82 % 1005,4 hPa 0,0 l/m 0 min 0 min 0 W/m 19,3 km/h (3 Bft) 100,00 %
08.08.2021 05:00 16,4 C 15,6 C 13,9 C 82 % 1005,3 hPa 0,0 l/m 0 min 0 min 0 W/m 25,7 km/h (4 Bft) 100,00 %
08.08.2021 05:02 16,3 C 15,6 C 13,9 C 82 % 1005,4 hPa 0,0 l/m 0 min 0 min 0 W/m 22,5 km/h (4 Bft) 93,48 %
08.08.2021 05:04 16,3 C 15,6 C 13,9 C 82 % 1005,4 hPa 0,0 l/m 0 min 0 min 0 W/m 35,4 km/h (5 Bft) 97,87 %
08.08.2021 05:06 16,3 C 15,6 C 13,4 C 82 % 1005,4 hPa 0,0 l/m 0 min 0 min 0 W/m 32,2 km/h (5 Bft) 97,87 %
08.08.2021 05:08 16,2 C 15,6 C 13,4 C 82 % 1005,5 hPa 0,0 l/m 0 min 0 min 0 W/m 22,5 km/h (4 Bft) 97,87 %
08.08.2021 05:10 16,2 C 15,6 C 13,4 C 82 % 1005,5 hPa 0,0 l/m 0 min 0 min 0 W/m 16,1 km/h (3 Bft) 97,87 %
08.08.2021 05:12 16,1 C 15,6 C 13,4 C 82 % 1005,5 hPa 0,0 l/m 0 min 0 min 0 W/m 12,9 km/h (3 Bft) 97,87 %
08.08.2021 05:14 16,1 C 15,6 C 13,4 C 83 % 1005,5 hPa 0,0 l/m 0 min 0 min 0 W/m 25,7 km/h (4 Bft) 97,83 %
08.08.2021 05:16 16,1 C 15,0 C 13,4 C 83 % 1005,5 hPa 0,0 l/m 0 min 0 min 0 W/m 19,3 km/h (3 Bft) 93,62 %
08.08.2021 05:18 16,0 C 15,0 C 13,4 C 83 % 1005,6 hPa 0,0 l/m 0 min 0 min 0 W/m 12,9 km/h (3 Bft) 97,87 %
08.08.2021 05:20 16,0 C 15,0 C 13,4 C 83 % 1005,5 hPa 0,0 l/m 0 min 0 min 0 W/m 32,2 km/h (5 Bft) 95,74 %
08.08.2021 05:22 16,0 C 15,0 C 13,4 C 83 % 1005,6 hPa 0,0 l/m 0 min 0 min 0 W/m 16,1 km/h (3 Bft) 97,87 %
08.08.2021 05:24 15,9 C 15,0 C 13,4 C 83 % 1005,6 hPa 0,0 l/m 0 min 0 min 0 W/m 12,9 km/h (3 Bft) 97,87 %
08.08.2021 05:26 15,9 C 15,0 C 13,4 C 83 % 1005,7 hPa 0,0 l/m 0 min 0 min 0 W/m 12,9 km/h (3 Bft) 95,65 %
08.08.2021 05:28 15,9 C 15,0 C 13,4 C 83 % 1005,6 hPa 0,0 l/m 0 min 0 min 0 W/m 6,4 km/h (2 Bft) 97,87 %
08.08.2021 05:30 15,9 C 15,0 C 13,4 C 83 % 1005,7 hPa 0,0 l/m 0 min 0 min 0 W/m 19,3 km/h (3 Bft) 97,87 %
08.08.2021 05:32 15,8 C 15,0 C 13,4 C 83 % 1005,7 hPa 0,0 l/m 0 min 0 min 0 W/m 16,1 km/h (3 Bft) 95,74 %
08.08.2021 05:34 15,8 C 15,0 C 13,4 C 84 % 1005,8 hPa 0,0 l/m 0 min 0 min 0 W/m 29,0 km/h (5 Bft) 97,87 %
08.08.2021 05:36 15,7 C 15,0 C 13,4 C 84 % 1005,8 hPa 0,0 l/m 0 min 0 min 0 W/m 22,5 km/h (4 Bft) 97,87 %
08.08.2021 05:38 15,7 C 15,0 C 13,4 C 84 % 1005,8 hPa 0,0 l/m 0 min 0 min 0 W/m 19,3 km/h (3 Bft) 95,65 %
08.08.2021 05:40 15,7 C 15,0 C 13,4 C 84 % 1005,9 hPa 0,0 l/m 0 min 0 min 0 W/m 16,1 km/h (3 Bft) 95,74 %
08.08.2021 05:42 15,6 C 15,0 C 13,4 C 84 % 1005,9 hPa 0,0 l/m 0 min 0 min 0 W/m 25,7 km/h (4 Bft) 95,74 %
08.08.2021 05:44 15,6 C 15,0 C 13,4 C 84 % 1005,8 hPa 0,0 l/m 0 min 0 min 0 W/m 16,1 km/h (3 Bft) 95,74 %
08.08.2021 05:46 15,6 C 15,0 C 13,4 C 84 % 1005,9 hPa 0,0 l/m 0 min 0 min 0 W/m 16,1 km/h (3 Bft) 95,74 %
08.08.2021 05:48 15,6 C 15,0 C 13,4 C 84 % 1006,0 hPa 0,0 l/m 0 min 0 min 0 W/m 22,5 km/h (4 Bft) 93,48 %
08.08.2021 05:50 15,5 C 15,0 C 13,4 C 84 % 1005,9 hPa 0,0 l/m 0 min 0 min 0 W/m 22,5 km/h (4 Bft) 95,74 %
08.08.2021 05:52 15,5 C 15,0 C 13,4 C 84 % 1005,9 hPa 0,0 l/m 0 min 0 min 0 W/m 16,1 km/h (3 Bft) 95,74 %
08.08.2021 05:54 15,5 C 14,4 C 12,8 C 84 % 1006,0 hPa 0,0 l/m 0 min 0 min 0 W/m 16,1 km/h (3 Bft) 95,74 %
08.08.2021 05:56 15,5 C 14,4 C 12,8 C 84 % 1006,0 hPa 0,0 l/m 0 min 0 min 0 W/m 25,7 km/h (4 Bft) 95,74 %
08.08.2021 05:58 15,5 C 14,4 C 12,8 C 84 % 1006,0 hPa 0,0 l/m 0 min 0 min 0 W/m 12,9 km/h (3 Bft) 91,49 %
08.08.2021 06:00 15,5 C 14,4 C 12,8 C 84 % 1006,1 hPa 0,0 l/m 0 min 0 min 0 W/m 32,2 km/h (5 Bft) 93,48 %
08.08.2021 06:02 15,5 C 14,4 C 12,8 C 84 % 1006,1 hPa 0,0 l/m 0 min 0 min 0 W/m 16,1 km/h (3 Bft) 95,74 %
08.08.2021 06:04 15,4 C 14,4 C 12,8 C 84 % 1006,1 hPa 0,0 l/m 0 min 0 min 0 W/m 22,5 km/h (4 Bft) 95,92 %
08.08.2021 06:08 15,4 C 14,4 C 12,8 C 84 % 1006,3 hPa 0,0 l/m 0 min 0 min 0 W/m 25,7 km/h (4 Bft) 93,68 %
08.08.2021 06:10 15,4 C 14,4 C 12,8 C 84 % 1006,2 hPa 0,0 l/m 0 min 0 min 0 W/m 22,5 km/h (4 Bft) 100,00 %
08.08.2021 06:12 15,4 C 14,4 C 12,8 C 84 % 1006,2 hPa 0,0 l/m 0 min 0 min 0 W/m 19,3 km/h (3 Bft) 97,83 %
08.08.2021 06:14 15,4 C 14,4 C 12,8 C 84 % 1006,2 hPa 0,0 l/m 0 min 0 min 5 W/m 29,0 km/h (5 Bft) 97,62 %
08.08.2021 06:16 15,4 C 14,4 C 12,8 C 84 % 1006,2 hPa 0,0 l/m 0 min 0 min 5 W/m 22,5 km/h (4 Bft) 97,96 %
08.08.2021 06:18 15,4 C 14,4 C 12,8 C 84 % 1006,3 hPa 0,0 l/m 0 min 0 min 5 W/m 22,5 km/h (4 Bft) 97,87 %
08.08.2021 06:20 15,4 C 14,4 C 12,8 C 84 % 1006,3 hPa 0,0 l/m 0 min 0 min 6 W/m 22,5 km/h (4 Bft) 97,87 %
08.08.2021 06:22 15,4 C 14,4 C 12,8 C 84 % 1006,3 hPa 0,0 l/m 0 min 0 min 7 W/m 22,5 km/h (4 Bft) 97,87 %
08.08.2021 06:24 15,4 C 14,4 C 12,8 C 84 % 1006,4 hPa 0,0 l/m 0 min 0 min 7 W/m 29,0 km/h (5 Bft) 95,74 %
08.08.2021 06:26 15,3 C 14,4 C 12,8 C 84 % 1006,4 hPa 0,0 l/m 0 min 0 min 8 W/m 29,0 km/h (5 Bft) 97,87 %
08.08.2021 06:28 15,3 C 14,4 C 12,8 C 84 % 1006,4 hPa 0,0 l/m 0 min 0 min 9 W/m 22,5 km/h (4 Bft) 97,83 %
08.08.2021 06:30 15,3 C 14,4 C 12,8 C 84 % 1006,4 hPa 0,0 l/m 0 min 0 min 11 W/m 29,0 km/h (5 Bft) 97,87 %
08.08.2021 06:32 15,3 C 14,4 C 12,8 C 84 % 1006,5 hPa 0,0 l/m 0 min 0 min 11 W/m 19,3 km/h (3 Bft) 97,87 %
08.08.2021 06:34 15,3 C 14,4 C 12,8 C 84 % 1006,5 hPa 0,0 l/m 0 min 0 min 11 W/m 25,7 km/h (4 Bft) 97,87 %
08.08.2021 06:36 15,3 C 14,4 C 12,8 C 85 % 1006,5 hPa 0,0 l/m 0 min 0 min 12 W/m 19,3 km/h (3 Bft) 97,87 %
08.08.2021 06:38 15,3 C 14,4 C 12,8 C 85 % 1006,5 hPa 0,0 l/m 0 min 0 min 12 W/m 16,1 km/h (3 Bft) 97,96 %
08.08.2021 06:40 15,3 C 14,4 C 12,8 C 85 % 1006,5 hPa 0,0 l/m 0 min 0 min 13 W/m 19,3 km/h (3 Bft) 100,00 %
08.08.2021 06:42 15,2 C 14,4 C 12,8 C 85 % 1006,6 hPa 0,0 l/m 0 min 0 min 15 W/m 22,5 km/h (4 Bft) 100,00 %
08.08.2021 06:44 15,2 C 14,4 C 12,8 C 85 % 1006,6 hPa 0,0 l/m 0 min 0 min 16 W/m 29,0 km/h (5 Bft) 97,87 %
08.08.2021 06:46 15,2 C 14,4 C 12,8 C 85 % 1006,6 hPa 0,0 l/m 0 min 0 min 18 W/m 25,7 km/h (4 Bft) 97,87 %
08.08.2021 06:48 15,2 C 14,4 C 12,8 C 85 % 1006,7 hPa 0,0 l/m 0 min 0 min 19 W/m 25,7 km/h (4 Bft) 100,00 %
08.08.2021 06:50 15,2 C 14,4 C 12,8 C 85 % 1006,6 hPa 0,0 l/m 0 min 0 min 19 W/m 25,7 km/h (4 Bft) 100,00 %
08.08.2021 06:52 15,2 C 14,4 C 12,8 C 85 % 1006,6 hPa 0,0 l/m 0 min 0 min 21 W/m 22,5 km/h (4 Bft) 97,83 %
08.08.2021 06:54 15,2 C 14,4 C 12,8 C 85 % 1006,6 hPa 0,0 l/m 0 min 0 min 22 W/m 22,5 km/h (4 Bft) 97,87 %
08.08.2021 06:56 15,1 C 14,4 C 12,8 C 85 % 1006,6 hPa 0,0 l/m 0 min 0 min 26 W/m 16,1 km/h (3 Bft) 95,74 %
08.08.2021 06:58 15,1 C 14,4 C 12,8 C 85 % 1006,7 hPa 0,0 l/m 0 min 0 min 28 W/m 25,7 km/h (4 Bft) 100,00 %
08.08.2021 07:00 15,1 C 14,4 C 12,8 C 85 % 1006,7 hPa 0,0 l/m 0 min 0 min 37 W/m 22,5 km/h (4 Bft) 97,87 %
08.08.2021 07:02 15,2 C 14,4 C 12,8 C 85 % 1006,7 hPa 0,0 l/m 0 min 0 min 48 W/m 32,2 km/h (5 Bft) 100,00 %
08.08.2021 07:04 15,2 C 14,4 C 12,8 C 85 % 1006,8 hPa 0,0 l/m 0 min 0 min 53 W/m 38,6 km/h (5 Bft) 100,00 %
08.08.2021 07:06 15,3 C 15,0 C 12,8 C 85 % 1006,8 hPa 0,0 l/m 0 min 0 min 55 W/m 22,5 km/h (4 Bft) 100,00 %
08.08.2021 07:08 15,3 C 15,0 C 13,4 C 85 % 1006,8 hPa 0,0 l/m 0 min 0 min 55 W/m 25,7 km/h (4 Bft) 100,00 %
08.08.2021 07:10 15,3 C 15,0 C 13,4 C 85 % 1006,9 hPa 0,0 l/m 0 min 0 min 50 W/m 29,0 km/h (5 Bft) 100,00 %
08.08.2021 07:12 15,4 C 15,0 C 13,4 C 85 % 1006,8 hPa 0,0 l/m 0 min 0 min 46 W/m 19,3 km/h (3 Bft) 100,00 %
08.08.2021 07:14 15,4 C 15,0 C 13,4 C 85 % 1006,8 hPa 0,0 l/m 0 min 0 min 44 W/m 25,7 km/h (4 Bft) 100,00 %
08.08.2021 07:16 15,4 C 15,0 C 13,4 C 85 % 1006,8 hPa 0,0 l/m 0 min 0 min 43 W/m 16,1 km/h (3 Bft) 100,00 %
08.08.2021 07:18 15,4 C 15,0 C 13,4 C 85 % 1006,8 hPa 0,0 l/m 0 min 0 min 43 W/m 16,1 km/h (3 Bft) 100,00 %
08.08.2021 07:20 15,5 C 15,0 C 13,4 C 85 % 1006,9 hPa 0,0 l/m 0 min 0 min 45 W/m 16,1 km/h (3 Bft) 100,00 %
08.08.2021 07:22 15,5 C 15,0 C 13,4 C 85 % 1006,9 hPa 0,0 l/m 0 min 0 min 45 W/m 16,1 km/h (3 Bft) 97,87 %
08.08.2021 07:24 15,5 C 15,0 C 13,4 C 85 % 1007,0 hPa 0,0 l/m 0 min 0 min 48 W/m 25,7 km/h (4 Bft) 100,00 %
08.08.2021 07:26 15,5 C 15,0 C 13,4 C 85 % 1006,9 hPa 0,0 l/m 0 min 0 min 48 W/m 35,4 km/h (5 Bft) 100,00 %
08.08.2021 07:28 15,5 C 15,0 C 13,4 C 84 % 1007,1 hPa 0,0 l/m 0 min 0 min 43 W/m 29,0 km/h (5 Bft) 100,00 %
08.08.2021 07:30 15,6 C 15,0 C 13,4 C 84 % 1007,2 hPa 0,0 l/m 0 min 0 min 38 W/m 29,0 km/h (5 Bft) 100,00 %
08.08.2021 07:32 15,6 C 15,0 C 13,4 C 84 % 1007,2 hPa 0,0 l/m 0 min 0 min 34 W/m 12,9 km/h (3 Bft) 100,00 %
08.08.2021 07:34 15,6 C 15,0 C 13,4 C 84 % 1007,2 hPa 0,0 l/m 0 min 0 min 31 W/m 38,6 km/h (5 Bft) 97,83 %
08.08.2021 07:36 15,6 C 15,0 C 13,4 C 84 % 1007,2 hPa 0,0 l/m 0 min 0 min 27 W/m 16,1 km/h (3 Bft) 97,87 %
08.08.2021 07:38 15,6 C 15,0 C 13,4 C 84 % 1007,2 hPa 0,0 l/m 0 min 0 min 36 W/m 19,3 km/h (3 Bft) 97,87 %
08.08.2021 07:40 15,6 C 15,0 C 13,4 C 84 % 1007,2 hPa 0,0 l/m 0 min 0 min 51 W/m 22,5 km/h (4 Bft) 95,74 %
08.08.2021 07:42 15,6 C 15,0 C 13,4 C 84 % 1007,3 hPa 0,0 l/m 0 min 0 min 53 W/m 38,6 km/h (5 Bft) 93,62 %
08.08.2021 07:44 15,6 C 15,0 C 13,4 C 84 % 1007,4 hPa 0,0 l/m 0 min 0 min 80 W/m 32,2 km/h (5 Bft) 97,87 %
08.08.2021 07:46 15,6 C 15,0 C 13,4 C 84 % 1007,5 hPa 0,0 l/m 0 min 0 min 102 W/m 25,7 km/h (4 Bft) 95,65 %
08.08.2021 07:48 15,6 C 15,6 C 13,4 C 84 % 1007,5 hPa 0,0 l/m 0 min 0 min 75 W/m 45,1 km/h (6 Bft) 95,74 %
08.08.2021 07:50 15,6 C 15,6 C 13,4 C 84 % 1007,5 hPa 0,0 l/m 0 min 0 min 53 W/m 29,0 km/h (5 Bft) 95,74 %
08.08.2021 07:52 15,7 C 15,6 C 13,4 C 84 % 1007,4 hPa 0,0 l/m 0 min 0 min 48 W/m 25,7 km/h (4 Bft) 97,87 %
08.08.2021 07:54 15,8 C 15,6 C 13,4 C 84 % 1007,6 hPa 0,0 l/m 0 min 0 min 43 W/m 22,5 km/h (4 Bft) 93,62 %
08.08.2021 07:56 15,8 C 15,6 C 13,4 C 84 % 1007,5 hPa 0,0 l/m 0 min 0 min 41 W/m 25,7 km/h (4 Bft) 95,74 %
08.08.2021 07:58 15,8 C 15,6 C 13,4 C 84 % 1007,5 hPa 0,0 l/m 0 min 0 min 37 W/m 25,7 km/h (4 Bft) 95,65 %
08.08.2021 08:00 15,8 C 15,6 C 13,4 C 84 % 1007,6 hPa 0,0 l/m 0 min 0 min 30 W/m 22,5 km/h (4 Bft) 95,74 %
08.08.2021 08:02 15,8 C 15,6 C 13,4 C 84 % 1007,6 hPa 0,0 l/m 0 min 0 min 37 W/m 22,5 km/h (4 Bft) 97,87 %
08.08.2021 08:04 15,8 C 15,6 C 13,4 C 84 % 1007,6 hPa 0,0 l/m 0 min 0 min 46 W/m 25,7 km/h (4 Bft) 95,74 %
08.08.2021 08:06 15,8 C 15,6 C 13,4 C 84 % 1007,6 hPa 0,0 l/m 0 min 0 min 47 W/m 16,1 km/h (3 Bft) 95,74 %
08.08.2021 08:08 15,8 C 15,6 C 13,4 C 84 % 1007,6 hPa 0,0 l/m 0 min 0 min 35 W/m 16,1 km/h (3 Bft) 97,87 %
08.08.2021 08:10 15,8 C 15,6 C 13,4 C 84 % 1007,7 hPa 0,0 l/m 0 min 0 min 34 W/m 25,7 km/h (4 Bft) 97,83 %
08.08.2021 08:12 15,9 C 15,6 C 13,4 C 84 % 1007,7 hPa 0,0 l/m 0 min 0 min 41 W/m 16,1 km/h (3 Bft) 97,87 %
08.08.2021 08:14 15,9 C 15,6 C 13,4 C 84 % 1007,7 hPa 0,0 l/m 0 min 0 min 48 W/m 22,5 km/h (4 Bft) 97,87 %
08.08.2021 08:16 15,9 C 15,6 C 13,4 C 84 % 1007,7 hPa 0,0 l/m 0 min 0 min 54 W/m 22,5 km/h (4 Bft) 97,87 %
08.08.2021 08:18 15,9 C 15,6 C 13,4 C 84 % 1007,8 hPa 0,0 l/m 0 min 0 min 54 W/m 25,7 km/h (4 Bft) 95,74 %
08.08.2021 08:20 15,9 C 15,6 C 13,4 C 83 % 1007,8 hPa 0,0 l/m 0 min 0 min 49 W/m 25,7 km/h (4 Bft) 97,87 %
08.08.2021 08:22 15,9 C 15,6 C 13,9 C 83 % 1007,8 hPa 0,0 l/m 0 min 0 min 52 W/m 16,1 km/h (3 Bft) 97,83 %
08.08.2021 08:24 15,9 C 15,6 C 13,9 C 83 % 1007,9 hPa 0,0 l/m 0 min 0 min 66 W/m 19,3 km/h (3 Bft) 95,74 %
08.08.2021 08:26 15,9 C 15,6 C 13,9 C 83 % 1007,9 hPa 0,0 l/m 0 min 0 min 48 W/m 29,0 km/h (5 Bft) 97,87 %
08.08.2021 08:28 15,9 C 15,6 C 13,9 C 83 % 1008,0 hPa 0,0 l/m 0 min 0 min 38 W/m 19,3 km/h (3 Bft) 97,87 %
08.08.2021 08:30 16,0 C 15,6 C 13,9 C 83 % 1007,9 hPa 0,0 l/m 0 min 0 min 48 W/m 29,0 km/h (5 Bft) 97,87 %
08.08.2021 08:32 15,9 C 15,6 C 13,9 C 83 % 1008,0 hPa 0,0 l/m 0 min 0 min 59 W/m 25,7 km/h (4 Bft) 97,87 %
08.08.2021 08:34 16,0 C 15,6 C 13,9 C 83 % 1008,0 hPa 0,0 l/m 0 min 0 min 84 W/m 19,3 km/h (3 Bft) 100,00 %
08.08.2021 08:36 16,0 C 15,6 C 13,9 C 83 % 1008,0 hPa 0,0 l/m 0 min 0 min 93 W/m 22,5 km/h (4 Bft) 97,87 %
08.08.2021 08:38 16,0 C 15,6 C 13,9 C 83 % 1008,0 hPa 0,0 l/m 0 min 0 min 83 W/m 16,1 km/h (3 Bft) 97,87 %
08.08.2021 08:40 16,0 C 15,6 C 13,9 C 83 % 1008,0 hPa 0,0 l/m 0 min 0 min 80 W/m 16,1 km/h (3 Bft) 97,87 %
08.08.2021 08:42 16,0 C 15,6 C 13,9 C 83 % 1008,1 hPa 0,0 l/m 0 min 0 min 81 W/m 25,7 km/h (4 Bft) 93,62 %
08.08.2021 08:44 16,1 C 15,6 C 13,9 C 82 % 1008,0 hPa 0,0 l/m 0 min 0 min 80 W/m 19,3 km/h (3 Bft) 95,65 %
08.08.2021 08:46 16,1 C 15,6 C 13,9 C 83 % 1008,1 hPa 0,0 l/m 0 min 0 min 89 W/m 19,3 km/h (3 Bft) 97,87 %
08.08.2021 08:48 16,1 C 15,6 C 13,9 C 82 % 1008,1 hPa 0,0 l/m 0 min 0 min 76 W/m 19,3 km/h (3 Bft) 97,87 %
08.08.2021 08:50 16,2 C 15,6 C 13,9 C 82 % 1008,1 hPa 0,0 l/m 0 min 0 min 71 W/m 16,1 km/h (3 Bft) 97,87 %
08.08.2021 08:52 16,2 C 15,6 C 13,9 C 82 % 1008,2 hPa 0,0 l/m 0 min 0 min 74 W/m 25,7 km/h (4 Bft) 97,87 %
08.08.2021 08:54 16,2 C 15,6 C 13,9 C 82 % 1008,2 hPa 0,0 l/m 0 min 0 min 73 W/m 19,3 km/h (3 Bft) 97,87 %
08.08.2021 08:56 16,3 C 15,6 C 13,9 C 82 % 1008,3 hPa 0,0 l/m 0 min 0 min 81 W/m 19,3 km/h (3 Bft) 97,83 %
08.08.2021 08:58 16,3 C 15,6 C 13,9 C 82 % 1008,3 hPa 0,0 l/m 0 min 0 min 86 W/m 19,3 km/h (3 Bft) 95,74 %
08.08.2021 09:00 16,3 C 16,1 C 13,9 C 82 % 1008,4 hPa 0,0 l/m 0 min 0 min 81 W/m 25,7 km/h (4 Bft) 97,87 %
08.08.2021 09:02 16,3 C 16,1 C 13,9 C 82 % 1008,3 hPa 0,0 l/m 0 min 0 min 99 W/m 16,1 km/h (3 Bft) 97,87 %
08.08.2021 09:04 16,3 C 16,1 C 14,5 C 82 % 1008,4 hPa 0,0 l/m 0 min 0 min 114 W/m 19,3 km/h (3 Bft) 97,87 %
08.08.2021 09:06 16,3 C 16,1 C 14,5 C 82 % 1008,3 hPa 0,0 l/m 0 min 0 min 120 W/m 22,5 km/h (4 Bft) 97,87 %
08.08.2021 09:08 16,4 C 16,1 C 14,5 C 82 % 1008,4 hPa 0,0 l/m 0 min 0 min 107 W/m 29,0 km/h (5 Bft) 97,87 %
08.08.2021 09:10 16,4 C 16,1 C 14,5 C 82 % 1008,4 hPa 0,0 l/m 0 min 0 min 114 W/m 22,5 km/h (4 Bft) 97,83 %
08.08.2021 09:12 16,4 C 16,1 C 14,5 C 81 % 1008,4 hPa 0,0 l/m 0 min 0 min 128 W/m 19,3 km/h (3 Bft) 97,87 %
08.08.2021 09:14 16,4 C 16,1 C 14,5 C 81 % 1008,4 hPa 0,0 l/m 0 min 0 min 116 W/m 25,7 km/h (4 Bft) 97,87 %
08.08.2021 09:16 16,4 C 16,1 C 14,5 C 81 % 1008,5 hPa 0,0 l/m 0 min 0 min 112 W/m 19,3 km/h (3 Bft) 93,62 %
08.08.2021 09:18 16,4 C 16,1 C 14,5 C 81 % 1008,6 hPa 0,0 l/m 0 min 0 min 104 W/m 29,0 km/h (5 Bft) 97,87 %
08.08.2021 09:20 16,4 C 16,1 C 14,5 C 80 % 1008,6 hPa 0,0 l/m 0 min 0 min 101 W/m 29,0 km/h (5 Bft) 93,48 %
08.08.2021 09:22 16,4 C 16,1 C 14,5 C 80 % 1008,7 hPa 0,0 l/m 0 min 0 min 131 W/m 45,1 km/h (6 Bft) 97,87 %
08.08.2021 09:24 16,4 C 16,1 C 14,5 C 80 % 1008,6 hPa 0,0 l/m 0 min 0 min 118 W/m 16,1 km/h (3 Bft) 97,87 %
08.08.2021 09:26 16,4 C 16,1 C 14,5 C 80 % 1008,6 hPa 0,0 l/m 0 min 0 min 105 W/m 19,3 km/h (3 Bft) 97,87 %
08.08.2021 09:28 16,4 C 16,1 C 14,5 C 80 % 1008,5 hPa 0,0 l/m 0 min 0 min 125 W/m 29,0 km/h (5 Bft) 97,87 %
08.08.2021 09:30 16,5 C 16,1 C 14,5 C 80 % 1008,6 hPa 0,0 l/m 0 min 0 min 167 W/m 25,7 km/h (4 Bft) 100,00 %
08.08.2021 09:32 16,5 C 16,1 C 14,5 C 80 % 1008,5 hPa 0,0 l/m 0 min 0 min 159 W/m 29,0 km/h (5 Bft) 95,65 %
08.08.2021 09:34 16,5 C 16,7 C 14,5 C 80 % 1008,5 hPa 0,0 l/m 0 min 0 min 194 W/m 25,7 km/h (4 Bft) 97,87 %
08.08.2021 09:36 16,5 C 16,7 C 14,5 C 80 % 1008,7 hPa 0,0 l/m 0 min 0 min 232 W/m 19,3 km/h (3 Bft) 95,74 %
08.08.2021 09:38 16,6 C 16,7 C 15,0 C 80 % 1008,6 hPa 0,0 l/m 0 min 0 min 238 W/m 25,7 km/h (4 Bft) 97,87 %
08.08.2021 09:40 16,7 C 17,2 C 15,0 C 81 % 1008,6 hPa 0,0 l/m 0 min 0 min 230 W/m 25,7 km/h (4 Bft) 95,74 %
08.08.2021 09:42 16,8 C 17,8 C 15,6 C 80 % 1008,7 hPa 0,0 l/m 0 min 0 min 230 W/m 25,7 km/h (4 Bft) 95,74 %
08.08.2021 09:44 16,9 C 18,9 C 16,1 C 80 % 1008,6 hPa 0,0 l/m 2 min 0 min 539 W/m 25,7 km/h (4 Bft) 97,83 %
08.08.2021 09:46 17,0 C 19,4 C 16,1 C 79 % 1008,7 hPa 0,0 l/m 2 min 0 min 575 W/m 32,2 km/h (5 Bft) 95,74 %
08.08.2021 09:48 17,2 C 20,0 C 16,7 C 77 % 1008,6 hPa 0,0 l/m 2 min 0 min 486 W/m 22,5 km/h (4 Bft) 97,87 %
08.08.2021 09:50 17,3 C 20,0 C 16,7 C 77 % 1008,8 hPa 0,0 l/m 2 min 0 min 414 W/m 41,8 km/h (6 Bft) 95,74 %
08.08.2021 09:52 17,4 C 19,4 C 16,7 C 76 % 1008,7 hPa 0,0 l/m 2 min 0 min 460 W/m 29,0 km/h (5 Bft) 97,87 %
08.08.2021 09:54 17,4 C 18,9 C 16,1 C 75 % 1008,8 hPa 0,0 l/m 2 min 0 min 354 W/m 41,8 km/h (6 Bft) 97,87 %
08.08.2021 09:56 17,4 C 18,9 C 16,1 C 76 % 1008,7 hPa 0,0 l/m 2 min 0 min 388 W/m 22,5 km/h (4 Bft) 97,83 %
08.08.2021 09:58 17,4 C 19,4 C 16,1 C 76 % 1008,8 hPa 0,0 l/m 0 min 0 min 213 W/m 29,0 km/h (5 Bft) 95,74 %
08.08.2021 10:00 17,5 C 20,0 C 16,1 C 76 % 1008,8 hPa 0,0 l/m 2 min 0 min 318 W/m 16,1 km/h (3 Bft) 97,87 %
08.08.2021 10:02 17,6 C 20,6 C 16,1 C 76 % 1008,8 hPa 0,0 l/m 2 min 0 min 397 W/m 22,5 km/h (4 Bft) 97,87 %
08.08.2021 10:04 17,8 C 20,6 C 16,1 C 76 % 1008,8 hPa 0,0 l/m 2 min 0 min 593 W/m 25,7 km/h (4 Bft) 97,87 %
08.08.2021 10:06 17,9 C 20,6 C 16,1 C 76 % 1008,8 hPa 0,0 l/m 2 min 0 min 482 W/m 38,6 km/h (5 Bft) 97,87 %
08.08.2021 10:08 18,0 C 21,1 C 16,1 C 75 % 1008,9 hPa 0,0 l/m 2 min 0 min 584 W/m 32,2 km/h (5 Bft) 100,00 %
08.08.2021 10:10 18,1 C 20,6 C 16,1 C 75 % 1008,9 hPa 0,0 l/m 2 min 0 min 707 W/m 32,2 km/h (5 Bft) 100,00 %
08.08.2021 10:12 18,1 C 20,0 C 16,1 C 74 % 1008,9 hPa 0,0 l/m 2 min 0 min 707 W/m 35,4 km/h (5 Bft) 100,00 %
08.08.2021 10:14 18,1 C 20,0 C 16,1 C 74 % 1008,9 hPa 0,0 l/m 2 min 0 min 497 W/m 38,6 km/h (5 Bft) 100,00 %
08.08.2021 10:16 18,1 C 20,0 C 16,1 C 73 % 1008,9 hPa 0,0 l/m 2 min 0 min 478 W/m 32,2 km/h (5 Bft) 100,00 %
08.08.2021 10:18 18,2 C 20,6 C 16,7 C 74 % 1008,8 hPa 0,0 l/m 2 min 0 min 478 W/m 19,3 km/h (3 Bft) 97,87 %
08.08.2021 10:20 18,3 C 20,0 C 16,7 C 73 % 1008,9 hPa 0,0 l/m 2 min 0 min 469 W/m 29,0 km/h (5 Bft) 97,83 %
08.08.2021 10:22 18,2 C 18,9 C 16,1 C 73 % 1009,0 hPa 0,0 l/m 0 min 0 min 270 W/m 48,3 km/h (6 Bft) 100,00 %
08.08.2021 10:24 18,1 C 18,3 C 16,1 C 73 % 1009,0 hPa 0,0 l/m 0 min 0 min 265 W/m 35,4 km/h (5 Bft) 100,00 %
08.08.2021 10:26 18,0 C 18,3 C 16,1 C 74 % 1009,0 hPa 0,0 l/m 0 min 0 min 274 W/m 22,5 km/h (4 Bft) 97,87 %
08.08.2021 10:28 17,9 C 17,8 C 16,1 C 74 % 1009,0 hPa 0,0 l/m 0 min 0 min 247 W/m 48,3 km/h (6 Bft) 100,00 %
08.08.2021 10:30 17,9 C 17,8 C 15,6 C 74 % 1009,1 hPa 0,0 l/m 0 min 0 min 253 W/m 25,7 km/h (4 Bft) 100,00 %
08.08.2021 10:32 17,8 C 17,8 C 15,6 C 74 % 1009,1 hPa 0,0 l/m 0 min 0 min 275 W/m 38,6 km/h (5 Bft) 100,00 %
08.08.2021 10:34 17,6 C 17,8 C 15,6 C 74 % 1009,1 hPa 0,0 l/m 0 min 0 min 236 W/m 38,6 km/h (5 Bft) 100,00 %
08.08.2021 10:36 17,6 C 17,8 C 15,6 C 75 % 1009,0 hPa 0,0 l/m 0 min 0 min 255 W/m 19,3 km/h (3 Bft) 100,00 %
08.08.2021 10:38 17,6 C 17,8 C 15,6 C 75 % 1009,1 hPa 0,0 l/m 0 min 0 min 261 W/m 41,8 km/h (6 Bft) 100,00 %
08.08.2021 10:40 17,6 C 17,8 C 15,6 C 75 % 1009,1 hPa 0,0 l/m 0 min 0 min 216 W/m 19,3 km/h (3 Bft) 100,00 %
08.08.2021 10:42 17,7 C 17,8 C 15,6 C 76 % 1009,1 hPa 0,0 l/m 0 min 0 min 206 W/m 12,9 km/h (3 Bft) 100,00 %
08.08.2021 10:44 17,7 C 17,8 C 16,1 C 75 % 1009,1 hPa 0,0 l/m 0 min 0 min 264 W/m 32,2 km/h (5 Bft) 100,00 %
08.08.2021 10:46 17,8 C 18,3 C 16,1 C 74 % 1009,2 hPa 0,0 l/m 0 min 0 min 265 W/m 19,3 km/h (3 Bft) 100,00 %
08.08.2021 10:48 17,8 C 18,3 C 16,7 C 74 % 1009,2 hPa 0,0 l/m 0 min 0 min 276 W/m 19,3 km/h (3 Bft) 100,00 %
08.08.2021 10:50 17,9 C 18,3 C 16,7 C 74 % 1009,2 hPa 0,0 l/m 0 min 0 min 289 W/m 19,3 km/h (3 Bft) 100,00 %
08.08.2021 10:52 17,9 C 18,9 C 16,7 C 74 % 1009,3 hPa 0,0 l/m 2 min 0 min 560 W/m 19,3 km/h (3 Bft) 100,00 %
08.08.2021 10:54 18,0 C 18,3 C 16,7 C 73 % 1009,3 hPa 0,0 l/m 2 min 0 min 533 W/m 19,3 km/h (3 Bft) 97,87 %
08.08.2021 10:56 18,0 C 18,3 C 16,7 C 73 % 1009,2 hPa 0,0 l/m 0 min 0 min 244 W/m 35,4 km/h (5 Bft) 100,00 %
08.08.2021 10:58 18,0 C 18,3 C 17,3 C 73 % 1009,3 hPa 0,0 l/m 0 min 0 min 241 W/m 22,5 km/h (4 Bft) 100,00 %
08.08.2021 11:00 18,0 C 18,3 C 17,3 C 74 % 1009,4 hPa 0,0 l/m 0 min 0 min 260 W/m 25,7 km/h (4 Bft) 100,00 %
08.08.2021 11:02 18,1 C 18,9 C 17,3 C 74 % 1009,3 hPa 0,0 l/m 0 min 0 min 287 W/m 25,7 km/h (4 Bft) 97,87 %
08.08.2021 11:04 18,2 C 19,4 C 17,3 C 75 % 1009,3 hPa 0,0 l/m 0 min 0 min 287 W/m 12,9 km/h (3 Bft) 100,00 %
08.08.2021 11:06 18,4 C 19,4 C 17,3 C 74 % 1009,3 hPa 0,0 l/m 2 min 0 min 875 W/m 19,3 km/h (3 Bft) 100,00 %
08.08.2021 11:08 18,5 C 19,4 C 17,3 C 74 % 1009,3 hPa 0,0 l/m 2 min 0 min 527 W/m 9,7 km/h (2 Bft) 100,00 %
08.08.2021 11:10 18,5 C 18,9 C 16,7 C 73 % 1009,3 hPa 0,0 l/m 0 min 0 min 233 W/m 19,3 km/h (3 Bft) 100,00 %
08.08.2021 11:12 18,5 C 18,9 C 16,7 C 73 % 1009,3 hPa 0,0 l/m 0 min 0 min 243 W/m 6,4 km/h (2 Bft) 97,87 %
08.08.2021 11:14 18,5 C 18,3 C 16,7 C 73 % 1009,4 hPa 0,0 l/m 0 min 0 min 206 W/m 22,5 km/h (4 Bft) 97,87 %
08.08.2021 11:16 18,5 C 18,3 C 16,1 C 73 % 1009,4 hPa 0,0 l/m 0 min 0 min 194 W/m 29,0 km/h (5 Bft) 97,87 %
08.08.2021 11:18 18,4 C 18,3 C 16,1 C 72 % 1009,5 hPa 0,0 l/m 0 min 0 min 293 W/m 29,0 km/h (5 Bft) 97,87 %
08.08.2021 11:20 18,3 C 18,3 C 16,1 C 72 % 1009,5 hPa 0,0 l/m 2 min 0 min 410 W/m 35,4 km/h (5 Bft) 93,48 %
08.08.2021 11:22 18,3 C 18,3 C 16,7 C 72 % 1009,5 hPa 0,0 l/m 0 min 0 min 315 W/m 29,0 km/h (5 Bft) 95,74 %
08.08.2021 11:24 18,2 C 18,3 C 16,7 C 72 % 1009,6 hPa 0,0 l/m 0 min 0 min 342 W/m 35,4 km/h (5 Bft) 95,74 %
08.08.2021 11:26 18,3 C 18,9 C 16,7 C 72 % 1009,5 hPa 0,0 l/m 2 min 0 min 367 W/m 16,1 km/h (3 Bft) 95,74 %
08.08.2021 11:28 18,3 C 18,9 C 16,7 C 72 % 1009,6 hPa 0,0 l/m 2 min 0 min 365 W/m 16,1 km/h (3 Bft) 93,62 %
08.08.2021 11:30 18,3 C 18,9 C 16,7 C 73 % 1009,6 hPa 0,0 l/m 2 min 0 min 434 W/m 32,2 km/h (5 Bft) 95,65 %
08.08.2021 11:32 18,4 C 18,9 C 17,8 C 72 % 1009,6 hPa 0,0 l/m 2 min 0 min 703 W/m 32,2 km/h (5 Bft) 93,62 %
08.08.2021 11:34 18,4 C 19,4 C 17,8 C 71 % 1009,6 hPa 0,0 l/m 2 min 0 min 938 W/m 35,4 km/h (5 Bft) 91,49 %
08.08.2021 11:36 18,5 C 19,4 C 17,8 C 72 % 1009,7 hPa 0,0 l/m 2 min 0 min 498 W/m 35,4 km/h (5 Bft) 95,74 %
08.08.2021 11:38 18,5 C 18,9 C 17,3 C 71 % 1009,6 hPa 0,0 l/m 0 min 0 min 335 W/m 19,3 km/h (3 Bft) 93,62 %
08.08.2021 11:40 18,5 C 18,9 C 17,3 C 71 % 1009,6 hPa 0,0 l/m 0 min 0 min 350 W/m 22,5 km/h (4 Bft) 93,62 %
08.08.2021 11:42 18,6 C 18,9 C 17,3 C 72 % 1009,7 hPa 0,0 l/m 0 min 0 min 357 W/m 25,7 km/h (4 Bft) 93,48 %
08.08.2021 11:44 18,6 C 18,9 C 17,3 C 71 % 1009,7 hPa 0,0 l/m 0 min 0 min 312 W/m 29,0 km/h (5 Bft) 93,62 %
08.08.2021 11:46 18,6 C 18,9 C 16,7 C 71 % 1009,8 hPa 0,0 l/m 0 min 0 min 229 W/m 19,3 km/h (3 Bft) 93,62 %
08.08.2021 11:48 18,5 C 18,9 C 16,7 C 71 % 1009,7 hPa 0,0 l/m 0 min 0 min 223 W/m 22,5 km/h (4 Bft) 93,62 %
08.08.2021 11:50 18,6 C 18,9 C 16,7 C 71 % 1009,8 hPa 0,0 l/m 0 min 0 min 277 W/m 29,0 km/h (5 Bft) 95,74 %
08.08.2021 11:52 18,5 C 18,9 C 16,7 C 71 % 1009,8 hPa 0,0 l/m 0 min 0 min 297 W/m 35,4 km/h (5 Bft) 91,49 %
08.08.2021 11:54 18,5 C 18,3 C 16,7 C 71 % 1009,9 hPa 0,0 l/m 0 min 0 min 270 W/m 35,4 km/h (5 Bft) 91,30 %
08.08.2021 11:56 18,4 C 18,3 C 16,7 C 71 % 1009,9 hPa 0,0 l/m 0 min 0 min 241 W/m 32,2 km/h (5 Bft) 93,62 %
08.08.2021 11:58 18,4 C 18,3 C 16,1 C 71 % 1009,9 hPa 0,0 l/m 0 min 0 min 197 W/m 22,5 km/h (4 Bft) 91,49 %
08.08.2021 12:00 18,3 C 18,3 C 16,1 C 71 % 1009,9 hPa 0,0 l/m 0 min 0 min 183 W/m 32,2 km/h (5 Bft) 93,62 %
08.08.2021 12:02 18,3 C 18,3 C 16,1 C 71 % 1009,9 hPa 0,0 l/m 0 min 0 min 228 W/m 22,5 km/h (4 Bft) 93,62 %
08.08.2021 12:04 18,4 C 18,9 C 17,3 C 72 % 1010,0 hPa 0,0 l/m 2 min 0 min 571 W/m 19,3 km/h (3 Bft) 93,62 %
08.08.2021 12:08 18,4 C 18,9 C 16,7 C 71 % 1010,0 hPa 0,0 l/m 4 min 0 min 406 W/m 38,6 km/h (5 Bft) 94,62 %
08.08.2021 12:10 18,5 C 18,9 C 17,3 C 70 % 1010,0 hPa 0,0 l/m 2 min 0 min 409 W/m 32,2 km/h (5 Bft) 93,62 %
08.08.2021 12:12 18,5 C 18,9 C 17,3 C 70 % 1010,0 hPa 0,0 l/m 2 min 0 min 430 W/m 35,4 km/h (5 Bft) 97,87 %
08.08.2021 12:14 18,6 C 18,9 C 17,3 C 71 % 1010,0 hPa 0,0 l/m 0 min 0 min 367 W/m 38,6 km/h (5 Bft) 97,87 %
08.08.2021 12:16 18,6 C 18,9 C 16,7 C 70 % 1010,0 hPa 0,0 l/m 0 min 0 min 312 W/m 41,8 km/h (6 Bft) 97,87 %
08.08.2021 12:18 18,6 C 18,9 C 16,7 C 70 % 1010,0 hPa 0,0 l/m 0 min 0 min 287 W/m 29,0 km/h (5 Bft) 97,83 %
08.08.2021 12:20 18,6 C 18,9 C 16,7 C 71 % 1010,0 hPa 0,0 l/m 0 min 0 min 242 W/m 25,7 km/h (4 Bft) 100,00 %
08.08.2021 12:22 18,6 C 18,3 C 16,7 C 71 % 1010,1 hPa 0,0 l/m 0 min 0 min 205 W/m 25,7 km/h (4 Bft) 100,00 %
08.08.2021 12:24 18,6 C 18,3 C 16,7 C 71 % 1010,1 hPa 0,0 l/m 0 min 0 min 216 W/m 16,1 km/h (3 Bft) 100,00 %
08.08.2021 12:26 18,5 C 18,3 C 16,7 C 70 % 1010,1 hPa 0,0 l/m 0 min 0 min 283 W/m 25,7 km/h (4 Bft) 100,00 %
08.08.2021 12:28 18,5 C 18,3 C 16,7 C 70 % 1010,0 hPa 0,0 l/m 0 min 0 min 296 W/m 25,7 km/h (4 Bft) 100,00 %
08.08.2021 12:30 18,5 C 18,3 C 16,7 C 71 % 1010,0 hPa 0,0 l/m 0 min 0 min 260 W/m 16,1 km/h (3 Bft) 100,00 %
08.08.2021 12:32 18,5 C 18,3 C 16,7 C 72 % 1010,0 hPa 0,0 l/m 0 min 0 min 215 W/m 19,3 km/h (3 Bft) 100,00 %
08.08.2021 12:34 18,5 C 18,3 C 16,1 C 72 % 1010,1 hPa 0,0 l/m 0 min 0 min 187 W/m 16,1 km/h (3 Bft) 100,00 %
08.08.2021 12:36 18,5 C 18,3 C 16,1 C 72 % 1010,1 hPa 0,0 l/m 0 min 0 min 187 W/m 22,5 km/h (4 Bft) 100,00 %
08.08.2021 12:38 18,5 C 18,3 C 16,1 C 72 % 1010,1 hPa 0,0 l/m 0 min 0 min 275 W/m 22,5 km/h (4 Bft) 100,00 %
08.08.2021 12:40 18,5 C 18,9 C 16,7 C 71 % 1010,1 hPa 0,0 l/m 0 min 0 min 349 W/m 22,5 km/h (4 Bft) 100,00 %
08.08.2021 12:42 18,5 C 18,9 C 16,7 C 72 % 1010,1 hPa 0,0 l/m 0 min 0 min 359 W/m 35,4 km/h (5 Bft) 100,00 %
08.08.2021 12:44 18,5 C 18,9 C 17,3 C 71 % 1010,1 hPa 0,0 l/m 2 min 0 min 399 W/m 25,7 km/h (4 Bft) 100,00 %
08.08.2021 12:46 18,6 C 18,9 C 17,3 C 71 % 1010,1 hPa 0,0 l/m 2 min 0 min 398 W/m 29,0 km/h (5 Bft) 97,87 %
08.08.2021 12:48 18,8 C 19,4 C 17,3 C 71 % 1010,1 hPa 0,0 l/m 0 min 0 min 336 W/m 16,1 km/h (3 Bft) 100,00 %
08.08.2021 12:50 18,8 C 19,4 C 17,3 C 70 % 1010,1 hPa 0,0 l/m 0 min 0 min 365 W/m 32,2 km/h (5 Bft) 100,00 %
08.08.2021 12:52 18,8 C 19,4 C 17,3 C 70 % 1010,0 hPa 0,0 l/m 2 min 0 min 413 W/m 25,7 km/h (4 Bft) 100,00 %
08.08.2021 12:54 18,9 C 19,4 C 17,3 C 70 % 1010,1 hPa 0,0 l/m 0 min 0 min 383 W/m 22,5 km/h (4 Bft) 100,00 %
08.08.2021 12:56 18,9 C 19,4 C 17,3 C 70 % 1010,0 hPa 0,0 l/m 0 min 0 min 359 W/m 25,7 km/h (4 Bft) 100,00 %
08.08.2021 12:58 18,9 C 18,9 C 17,3 C 69 % 1010,1 hPa 0,0 l/m 0 min 0 min 330 W/m 35,4 km/h (5 Bft) 100,00 %
08.08.2021 13:01 18,9 C 18,9 C 16,7 C 70 % 1010,1 hPa 0,0 l/m 0 min 0 min 265 W/m 25,7 km/h (4 Bft) 100,00 %
08.08.2021 13:02 18,9 C 18,9 C 16,7 C 70 % 1010,1 hPa 0,0 l/m 0 min 0 min 280 W/m 25,7 km/h (4 Bft) 100,00 %
08.08.2021 13:04 18,9 C 18,9 C 16,7 C 69 % 1010,0 hPa 0,0 l/m 0 min 0 min 292 W/m 48,3 km/h (6 Bft) 100,00 %
08.08.2021 13:06 18,9 C 18,9 C 16,7 C 70 % 1010,1 hPa 0,0 l/m 0 min 0 min 343 W/m 25,7 km/h (4 Bft) 97,83 %
08.08.2021 13:08 18,9 C 19,4 C 16,7 C 70 % 1010,1 hPa 0,0 l/m 2 min 0 min 413 W/m 16,1 km/h (3 Bft) 100,00 %
08.08.2021 13:10 19,0 C 20,0 C 17,3 C 70 % 1010,1 hPa 0,0 l/m 2 min 0 min 448 W/m 19,3 km/h (3 Bft) 100,00 %
08.08.2021 13:12 19,1 C 20,0 C 17,8 C 70 % 1010,1 hPa 0,0 l/m 2 min 0 min 858 W/m 22,5 km/h (4 Bft) 97,87 %
08.08.2021 13:14 19,3 C 20,0 C 17,8 C 70 % 1010,1 hPa 0,0 l/m 2 min 0 min 466 W/m 16,1 km/h (3 Bft) 100,00 %
08.08.2021 13:16 19,3 C 19,4 C 17,3 C 69 % 1010,0 hPa 0,0 l/m 0 min 0 min 236 W/m 35,4 km/h (5 Bft) 100,00 %
08.08.2021 13:18 19,3 C 18,9 C 16,7 C 69 % 1010,1 hPa 0,0 l/m 0 min 0 min 177 W/m 38,6 km/h (5 Bft) 97,83 %
08.08.2021 13:20 19,1 C 18,9 C 16,7 C 69 % 1010,1 hPa 0,0 l/m 0 min 0 min 178 W/m 70,8 km/h (8 Bft) 100,00 %
08.08.2021 13:22 19,0 C 18,9 C 16,7 C 70 % 1010,1 hPa 0,0 l/m 0 min 0 min 276 W/m 32,2 km/h (5 Bft) 97,87 %
08.08.2021 13:24 18,9 C 18,9 C 16,1 C 70 % 1010,1 hPa 0,0 l/m 0 min 0 min 365 W/m 38,6 km/h (5 Bft) 100,00 %
08.08.2021 13:26 18,9 C 19,4 C 16,7 C 71 % 1010,0 hPa 0,0 l/m 0 min 0 min 394 W/m 22,5 km/h (4 Bft) 100,00 %
08.08.2021 13:28 19,0 C 20,0 C 17,3 C 72 % 1010,1 hPa 0,0 l/m 2 min 0 min 458 W/m 22,5 km/h (4 Bft) 100,00 %
08.08.2021 13:30 19,1 C 20,0 C 17,3 C 71 % 1010,1 hPa 0,0 l/m 2 min 0 min 867 W/m 35,4 km/h (5 Bft) 97,83 %
08.08.2021 13:32 19,3 C 20,0 C 17,3 C 70 % 1010,2 hPa 0,0 l/m 0 min 0 min 368 W/m 22,5 km/h (4 Bft) 100,00 %
08.08.2021 13:34 19,3 C 20,0 C 17,3 C 70 % 1010,1 hPa 0,0 l/m 0 min 0 min 316 W/m 25,7 km/h (4 Bft) 100,00 %
08.08.2021 13:36 19,4 C 19,4 C 17,3 C 69 % 1010,1 hPa 0,0 l/m 0 min 0 min 224 W/m 22,5 km/h (4 Bft) 100,00 %
08.08.2021 13:38 19,3 C 18,9 C 16,7 C 69 % 1010,2 hPa 0,0 l/m 0 min 0 min 137 W/m 19,3 km/h (3 Bft) 100,00 %
08.08.2021 13:40 19,3 C 18,9 C 16,7 C 70 % 1010,3 hPa 0,0 l/m 0 min 2 min 114 W/m 12,9 km/h (3 Bft) 97,87 %
08.08.2021 13:42 19,2 C 16,1 C 13,9 C 73 % 1010,4 hPa 0,4 l/m 0 min 2 min 127 W/m 12,9 km/h (3 Bft) 97,83 %
08.08.2021 13:44 18,9 C 15,0 C 12,8 C 77 % 1010,4 hPa 0,2 l/m 0 min 2 min 163 W/m 16,1 km/h (3 Bft) 97,87 %
08.08.2021 13:46 18,6 C 15,0 C 12,8 C 78 % 1010,4 hPa 0,0 l/m 0 min 2 min 222 W/m 19,3 km/h (3 Bft) 97,87 %
08.08.2021 13:48 18,4 C 15,6 C 13,4 C 80 % 1010,3 hPa 0,0 l/m 0 min 2 min 285 W/m 25,7 km/h (4 Bft) 97,87 %
08.08.2021 13:50 18,3 C 17,2 C 13,4 C 81 % 1010,4 hPa 0,0 l/m 0 min 2 min 285 W/m 16,1 km/h (3 Bft) 97,87 %
08.08.2021 13:52 18,3 C 18,9 C 13,9 C 83 % 1010,4 hPa 0,0 l/m 2 min 0 min 1000 W/m 19,3 km/h (3 Bft) 97,83 %
08.08.2021 13:54 18,3 C 19,4 C 13,9 C 83 % 1010,3 hPa 0,0 l/m 2 min 0 min 1028 W/m 22,5 km/h (4 Bft) 93,62 %
08.08.2021 13:56 18,4 C 19,4 C 13,9 C 83 % 1010,3 hPa 0,0 l/m 2 min 0 min 483 W/m 19,3 km/h (3 Bft) 95,74 %
08.08.2021 13:58 18,5 C 20,0 C 13,9 C 83 % 1010,3 hPa 0,0 l/m 2 min 0 min 814 W/m 19,3 km/h (3 Bft) 95,74 %
08.08.2021 14:00 18,5 C 19,4 C 13,9 C 82 % 1010,3 hPa 0,0 l/m 2 min 0 min 892 W/m 22,5 km/h (4 Bft) 94,29 %
08.08.2021 14:02 18,5 C 18,9 C 13,9 C 80 % 1010,3 hPa 0,0 l/m 2 min 0 min 434 W/m 35,4 km/h (5 Bft) 96,55 %
08.08.2021 14:04 18,5 C 19,4 C 13,9 C 80 % 1010,3 hPa 0,0 l/m 2 min 0 min 533 W/m 22,5 km/h (4 Bft) 95,74 %
08.08.2021 14:06 18,7 C 20,0 C 13,9 C 81 % 1010,3 hPa 0,0 l/m 2 min 0 min 1041 W/m 19,3 km/h (3 Bft) 91,49 %
08.08.2021 14:08 18,8 C 20,6 C 13,9 C 80 % 1010,3 hPa 0,0 l/m 2 min 0 min 1041 W/m 29,0 km/h (5 Bft) 95,74 %
08.08.2021 14:10 18,9 C 20,0 C 13,9 C 79 % 1010,3 hPa 0,0 l/m 2 min 0 min 1041 W/m 19,3 km/h (3 Bft) 95,65 %
08.08.2021 14:12 19,0 C 21,1 C 14,5 C 79 % 1010,3 hPa 0,0 l/m 2 min 0 min 1021 W/m 19,3 km/h (3 Bft) 93,62 %
08.08.2021 14:14 19,2 C 21,7 C 14,5 C 78 % 1010,3 hPa 0,0 l/m 2 min 0 min 963 W/m 19,3 km/h (3 Bft) 95,74 %
08.08.2021 14:16 19,3 C 21,1 C 14,5 C 74 % 1010,3 hPa 0,0 l/m 2 min 0 min 947 W/m 41,8 km/h (6 Bft) 97,87 %
08.08.2021 14:18 19,3 C 20,6 C 14,5 C 73 % 1010,3 hPa 0,0 l/m 2 min 0 min 947 W/m 32,2 km/h (5 Bft) 97,87 %
08.08.2021 14:20 19,3 C 20,6 C 14,5 C 73 % 1010,3 hPa 0,0 l/m 2 min 0 min 925 W/m 16,1 km/h (3 Bft) 95,74 %
08.08.2021 14:22 19,4 C 21,1 C 14,5 C 74 % 1010,4 hPa 0,0 l/m 2 min 0 min 485 W/m 16,1 km/h (3 Bft) 97,83 %
08.08.2021 14:24 19,5 C 21,7 C 15,0 C 72 % 1010,3 hPa 0,0 l/m 2 min 0 min 805 W/m 22,5 km/h (4 Bft) 97,87 %
08.08.2021 14:26 19,6 C 21,7 C 15,0 C 73 % 1010,3 hPa 0,0 l/m 2 min 0 min 659 W/m 25,7 km/h (4 Bft) 93,62 %
08.08.2021 14:28 19,8 C 22,2 C 15,0 C 72 % 1010,3 hPa 0,0 l/m 2 min 0 min 795 W/m 19,3 km/h (3 Bft) 93,62 %
08.08.2021 14:30 19,9 C 22,8 C 15,0 C 72 % 1010,3 hPa 0,0 l/m 2 min 0 min 942 W/m 25,7 km/h (4 Bft) 97,87 %
08.08.2021 14:32 20,0 C 22,8 C 15,0 C 70 % 1010,3 hPa 0,0 l/m 2 min 0 min 947 W/m 29,0 km/h (5 Bft) 97,87 %
08.08.2021 14:34 20,1 C 22,8 C 15,0 C 69 % 1010,3 hPa 0,0 l/m 2 min 0 min 864 W/m 32,2 km/h (5 Bft) 97,83 %
08.08.2021 14:36 20,3 C 22,2 C 15,0 C 70 % 1010,3 hPa 0,0 l/m 2 min 0 min 404 W/m 35,4 km/h (5 Bft) 95,74 %
08.08.2021 14:38 20,3 C 21,1 C 15,0 C 68 % 1010,3 hPa 0,0 l/m 0 min 0 min 341 W/m 19,3 km/h (3 Bft) 100,00 %
08.08.2021 14:40 20,1 C 20,6 C 15,6 C 68 % 1010,3 hPa 0,0 l/m 0 min 0 min 374 W/m 25,7 km/h (4 Bft) 97,87 %
08.08.2021 14:42 20,1 C 21,1 C 15,6 C 68 % 1010,3 hPa 0,0 l/m 2 min 0 min 396 W/m 16,1 km/h (3 Bft) 97,87 %
08.08.2021 14:44 20,1 C 20,6 C 16,1 C 68 % 1010,3 hPa 0,0 l/m 0 min 0 min 312 W/m 22,5 km/h (4 Bft) 100,00 %
08.08.2021 14:46 20,1 C 20,6 C 16,1 C 69 % 1010,3 hPa 0,0 l/m 0 min 0 min 276 W/m 22,5 km/h (4 Bft) 97,83 %
08.08.2021 14:48 20,1 C 20,0 C 16,7 C 69 % 1010,3 hPa 0,0 l/m 0 min 0 min 236 W/m 16,1 km/h (3 Bft) 97,87 %
08.08.2021 14:50 20,0 C 20,0 C 16,1 C 68 % 1010,3 hPa 0,0 l/m 0 min 0 min 179 W/m 19,3 km/h (3 Bft) 93,62 %
08.08.2021 14:52 19,9 C 19,4 C 16,1 C 68 % 1010,3 hPa 0,0 l/m 0 min 0 min 176 W/m 12,9 km/h (3 Bft) 97,87 %
08.08.2021 14:54 19,9 C 19,4 C 16,1 C 70 % 1010,3 hPa 0,0 l/m 0 min 0 min 164 W/m 6,4 km/h (2 Bft) 97,87 %
08.08.2021 14:56 19,9 C 19,4 C 16,1 C 70 % 1010,3 hPa 0,0 l/m 0 min 0 min 127 W/m 6,4 km/h (2 Bft) 97,87 %
08.08.2021 14:58 19,8 C 19,4 C 16,1 C 70 % 1010,3 hPa 0,0 l/m 0 min 0 min 123 W/m 12,9 km/h (3 Bft) 97,83 %
08.08.2021 15:00 19,8 C 19,4 C 15,6 C 70 % 1010,3 hPa 0,0 l/m 0 min 2 min 157 W/m 9,7 km/h (2 Bft) 97,87 %
08.08.2021 15:02 19,8 C 20,0 C 15,6 C 72 % 1010,3 hPa 0,0 l/m 0 min 2 min 286 W/m 16,1 km/h (3 Bft) 95,74 %
08.08.2021 15:04 19,8 C 21,1 C 16,1 C 74 % 1010,4 hPa 0,0 l/m 2 min 0 min 390 W/m 19,3 km/h (3 Bft) 97,87 %
08.08.2021 15:06 19,9 C 21,7 C 16,7 C 73 % 1010,4 hPa 0,0 l/m 2 min 0 min 390 W/m 19,3 km/h (3 Bft) 97,87 %
08.08.2021 15:08 20,0 C 21,1 C 16,7 C 72 % 1010,4 hPa 0,0 l/m 2 min 0 min 409 W/m 19,3 km/h (3 Bft) 97,87 %
08.08.2021 15:10 20,0 C 21,7 C 16,7 C 72 % 1010,3 hPa 0,0 l/m 2 min 0 min 545 W/m 29,0 km/h (5 Bft) 97,83 %
08.08.2021 15:12 20,1 C 22,8 C 17,3 C 72 % 1010,3 hPa 0,0 l/m 2 min 0 min 927 W/m 25,7 km/h (4 Bft) 97,87 %
08.08.2021 15:14 20,4 C 23,3 C 17,3 C 69 % 1010,2 hPa 0,0 l/m 2 min 0 min 1013 W/m 22,5 km/h (4 Bft) 95,74 %
08.08.2021 15:16 20,5 C 24,4 C 17,3 C 68 % 1010,3 hPa 0,0 l/m 2 min 0 min 945 W/m 6,4 km/h (2 Bft) 97,87 %
08.08.2021 15:18 20,8 C 23,9 C 17,8 C 68 % 1010,4 hPa 0,0 l/m 2 min 0 min 962 W/m 16,1 km/h (3 Bft) 97,87 %
08.08.2021 15:20 20,8 C 22,2 C 17,8 C 64 % 1010,5 hPa 0,0 l/m 2 min 0 min 863 W/m 25,7 km/h (4 Bft) 97,83 %
08.08.2021 15:22 20,8 C 21,7 C 17,3 C 66 % 1010,6 hPa 0,0 l/m 0 min 0 min 239 W/m 22,5 km/h (4 Bft) 95,74 %
08.08.2021 15:24 20,7 C 20,6 C 17,3 C 66 % 1010,5 hPa 0,0 l/m 0 min 0 min 164 W/m 22,5 km/h (4 Bft) 97,87 %
08.08.2021 15:26 20,6 C 20,6 C 17,3 C 67 % 1010,6 hPa 0,0 l/m 0 min 0 min 116 W/m 6,4 km/h (2 Bft) 97,87 %
08.08.2021 15:28 20,5 C 20,0 C 16,7 C 68 % 1010,6 hPa 0,0 l/m 0 min 0 min 115 W/m 29,0 km/h (5 Bft) 97,87 %
08.08.2021 15:30 20,3 C 19,4 C 16,7 C 67 % 1010,7 hPa 0,0 l/m 0 min 0 min 123 W/m 38,6 km/h (5 Bft) 97,87 %
08.08.2021 15:32 19,9 C 18,9 C 16,1 C 67 % 1010,8 hPa 0,0 l/m 0 min 0 min 129 W/m 45,1 km/h (6 Bft) 97,83 %
08.08.2021 15:34 19,5 C 18,3 C 15,6 C 69 % 1010,8 hPa 0,0 l/m 0 min 2 min 139 W/m 29,0 km/h (5 Bft) 95,74 %
08.08.2021 15:36 19,1 C 18,3 C 15,6 C 71 % 1010,8 hPa 0,0 l/m 0 min 2 min 177 W/m 29,0 km/h (5 Bft) 97,87 %
08.08.2021 15:38 19,0 C 18,3 C 15,6 C 72 % 1010,8 hPa 0,0 l/m 0 min 2 min 230 W/m 25,7 km/h (4 Bft) 97,87 %
08.08.2021 15:40 18,9 C 18,9 C 15,6 C 73 % 1010,8 hPa 0,0 l/m 2 min 0 min 408 W/m 35,4 km/h (5 Bft) 97,87 %
08.08.2021 15:42 18,9 C 19,4 C 16,1 C 73 % 1010,7 hPa 0,0 l/m 2 min 0 min 524 W/m 22,5 km/h (4 Bft) 95,74 %
08.08.2021 15:44 18,9 C 20,0 C 16,1 C 73 % 1010,7 hPa 0,0 l/m 2 min 0 min 496 W/m 22,5 km/h (4 Bft) 95,65 %
08.08.2021 15:46 19,0 C 21,7 C 16,7 C 74 % 1010,7 hPa 0,0 l/m 2 min 0 min 682 W/m 16,1 km/h (3 Bft) 95,74 %
08.08.2021 15:48 19,3 C 22,8 C 17,3 C 72 % 1010,7 hPa 0,0 l/m 2 min 0 min 975 W/m 25,7 km/h (4 Bft) 97,87 %
08.08.2021 15:50 19,6 C 23,9 C 17,8 C 72 % 1010,7 hPa 0,0 l/m 2 min 0 min 881 W/m 19,3 km/h (3 Bft) 97,87 %
08.08.2021 15:52 19,9 C 23,9 C 17,8 C 71 % 1010,7 hPa 0,0 l/m 2 min 0 min 804 W/m 22,5 km/h (4 Bft) 97,87 %
08.08.2021 15:54 20,0 C 23,9 C 17,8 C 70 % 1010,7 hPa 0,0 l/m 2 min 0 min 824 W/m 32,2 km/h (5 Bft) 97,87 %
08.08.2021 15:56 20,3 C 25,0 C 17,8 C 70 % 1010,7 hPa 0,0 l/m 2 min 0 min 830 W/m 19,3 km/h (3 Bft) 97,83 %
08.08.2021 15:58 20,5 C 24,4 C 17,8 C 69 % 1010,7 hPa 0,0 l/m 2 min 0 min 823 W/m 19,3 km/h (3 Bft) 97,87 %
08.08.2021 16:00 20,7 C 24,4 C 17,8 C 69 % 1010,6 hPa 0,0 l/m 2 min 0 min 768 W/m 25,7 km/h (4 Bft) 97,87 %
08.08.2021 16:02 20,9 C 24,4 C 17,8 C 67 % 1010,7 hPa 0,0 l/m 2 min 0 min 829 W/m 25,7 km/h (4 Bft) 97,87 %
08.08.2021 16:04 20,9 C 23,9 C 17,8 C 65 % 1010,6 hPa 0,0 l/m 2 min 0 min 798 W/m 45,1 km/h (6 Bft) 95,74 %
08.08.2021 16:06 21,0 C 25,0 C 17,8 C 66 % 1010,6 hPa 0,0 l/m 2 min 0 min 789 W/m 25,7 km/h (4 Bft) 95,74 %
08.08.2021 16:08 21,1 C 24,4 C 17,8 C 65 % 1010,6 hPa 0,0 l/m 2 min 0 min 785 W/m 22,5 km/h (4 Bft) 97,87 %
08.08.2021 16:10 21,1 C 23,9 C 17,8 C 65 % 1010,6 hPa 0,0 l/m 2 min 0 min 840 W/m 19,3 km/h (3 Bft) 97,83 %
08.08.2021 16:12 21,1 C 22,2 C 17,8 C 65 % 1010,6 hPa 0,0 l/m 2 min 0 min 478 W/m 32,2 km/h (5 Bft) 97,87 %
08.08.2021 16:14 20,9 C 21,1 C 17,8 C 64 % 1010,6 hPa 0,0 l/m 0 min 0 min 178 W/m 25,7 km/h (4 Bft) 95,74 %
08.08.2021 16:16 20,7 C 21,1 C 17,3 C 65 % 1010,6 hPa 0,0 l/m 0 min 0 min 303 W/m 25,7 km/h (4 Bft) 97,87 %
08.08.2021 16:18 20,6 C 21,1 C 17,3 C 66 % 1010,6 hPa 0,0 l/m 0 min 0 min 306 W/m 19,3 km/h (3 Bft) 97,87 %
08.08.2021 16:20 20,6 C 21,7 C 17,8 C 66 % 1010,7 hPa 0,0 l/m 2 min 0 min 365 W/m 22,5 km/h (4 Bft) 97,83 %
08.08.2021 16:22 20,6 C 21,7 C 17,8 C 65 % 1010,7 hPa 0,0 l/m 2 min 0 min 382 W/m 29,0 km/h (5 Bft) 95,74 %
08.08.2021 16:24 20,6 C 22,2 C 17,8 C 63 % 1010,7 hPa 0,0 l/m 0 min 0 min 317 W/m 29,0 km/h (5 Bft) 97,87 %
08.08.2021 16:26 20,6 C 23,9 C 17,8 C 60 % 1010,7 hPa 0,0 l/m 2 min 0 min 669 W/m 32,2 km/h (5 Bft) 97,87 %
08.08.2021 16:28 20,8 C 25,0 C 17,8 C 60 % 1010,8 hPa 0,0 l/m 2 min 0 min 773 W/m 19,3 km/h (3 Bft) 97,87 %
08.08.2021 16:30 20,9 C 25,0 C 18,4 C 60 % 1010,7 hPa 0,0 l/m 2 min 0 min 738 W/m 35,4 km/h (5 Bft) 97,87 %
08.08.2021 16:32 21,1 C 26,1 C 18,4 C 61 % 1010,8 hPa 0,0 l/m 2 min 0 min 731 W/m 16,1 km/h (3 Bft) 97,83 %
08.08.2021 16:34 21,3 C 26,1 C 18,4 C 61 % 1010,7 hPa 0,0 l/m 2 min 0 min 728 W/m 25,7 km/h (4 Bft) 95,74 %
08.08.2021 16:36 21,4 C 25,6 C 18,4 C 61 % 1010,6 hPa 0,0 l/m 2 min 0 min 731 W/m 29,0 km/h (5 Bft) 97,87 %
08.08.2021 16:38 21,4 C 26,1 C 18,4 C 61 % 1010,8 hPa 0,0 l/m 2 min 0 min 728 W/m 16,1 km/h (3 Bft) 97,87 %
08.08.2021 16:40 21,4 C 26,1 C 18,4 C 60 % 1010,7 hPa 0,0 l/m 2 min 0 min 719 W/m 29,0 km/h (5 Bft) 97,87 %
08.08.2021 16:42 21,4 C 26,1 C 18,4 C 61 % 1010,7 hPa 0,0 l/m 2 min 0 min 712 W/m 22,5 km/h (4 Bft) 97,87 %
08.08.2021 16:44 21,4 C 26,1 C 18,4 C 59 % 1010,9 hPa 0,0 l/m 2 min 0 min 716 W/m 19,3 km/h (3 Bft) 97,83 %
08.08.2021 16:46 21,4 C 26,1 C 18,4 C 59 % 1010,9 hPa 0,0 l/m 2 min 0 min 678 W/m 16,1 km/h (3 Bft) 97,87 %
08.08.2021 16:48 21,4 C 25,6 C 18,4 C 59 % 1010,8 hPa 0,0 l/m 2 min 0 min 580 W/m 19,3 km/h (3 Bft) 95,74 %
08.08.2021 16:50 21,4 C 25,0 C 18,4 C 59 % 1010,9 hPa 0,0 l/m 2 min 0 min 488 W/m 16,1 km/h (3 Bft) 97,87 %
08.08.2021 16:52 21,2 C 24,4 C 18,4 C 59 % 1010,9 hPa 0,0 l/m 2 min 0 min 537 W/m 22,5 km/h (4 Bft) 97,87 %
08.08.2021 16:54 21,1 C 24,4 C 18,4 C 59 % 1011,0 hPa 0,0 l/m 2 min 0 min 562 W/m 19,3 km/h (3 Bft) 97,87 %
08.08.2021 16:56 21,0 C 24,4 C 18,4 C 59 % 1011,0 hPa 0,0 l/m 2 min 0 min 668 W/m 38,6 km/h (5 Bft) 97,83 %
08.08.2021 16:58 20,9 C 24,4 C 17,8 C 59 % 1011,0 hPa 0,0 l/m 2 min 0 min 692 W/m 29,0 km/h (5 Bft) 97,87 %
08.08.2021 17:00 21,0 C 25,6 C 18,4 C 61 % 1011,1 hPa 0,0 l/m 2 min 0 min 664 W/m 22,5 km/h (4 Bft) 97,87 %
08.08.2021 17:02 21,0 C 25,0 C 18,4 C 60 % 1011,2 hPa 0,0 l/m 2 min 0 min 653 W/m 41,8 km/h (6 Bft) 97,87 %
08.08.2021 17:04 21,0 C 25,0 C 18,4 C 61 % 1011,2 hPa 0,0 l/m 2 min 0 min 646 W/m 19,3 km/h (3 Bft) 95,74 %
08.08.2021 17:06 21,0 C 24,4 C 18,4 C 60 % 1011,2 hPa 0,0 l/m 2 min 0 min 646 W/m 57,9 km/h (7 Bft) 95,74 %
08.08.2021 17:08 20,9 C 25,0 C 18,4 C 62 % 1011,1 hPa 0,0 l/m 2 min 0 min 646 W/m 35,4 km/h (5 Bft) 97,83 %
08.08.2021 17:10 21,0 C 25,0 C 18,4 C 62 % 1011,1 hPa 0,0 l/m 2 min 0 min 648 W/m 19,3 km/h (3 Bft) 97,87 %
08.08.2021 17:12 21,0 C 25,0 C 18,4 C 63 % 1011,1 hPa 0,0 l/m 2 min 0 min 664 W/m 38,6 km/h (5 Bft) 100,00 %
08.08.2021 17:14 21,0 C 23,9 C 18,4 C 62 % 1011,2 hPa 0,0 l/m 2 min 0 min 678 W/m 41,8 km/h (6 Bft) 97,87 %
08.08.2021 17:16 21,0 C 22,8 C 17,8 C 62 % 1011,2 hPa 0,0 l/m 2 min 0 min 651 W/m 29,0 km/h (5 Bft) 97,87 %
08.08.2021 17:18 20,9 C 23,3 C 17,8 C 62 % 1011,2 hPa 0,0 l/m 2 min 0 min 313 W/m 19,3 km/h (3 Bft) 97,87 %
08.08.2021 17:20 20,9 C 23,9 C 18,4 C 63 % 1011,2 hPa 0,0 l/m 2 min 0 min 702 W/m 35,4 km/h (5 Bft) 100,00 %
08.08.2021 17:22 21,0 C 23,9 C 18,4 C 63 % 1011,3 hPa 0,0 l/m 2 min 0 min 688 W/m 19,3 km/h (3 Bft) 95,74 %
08.08.2021 17:24 21,0 C 24,4 C 18,4 C 63 % 1011,3 hPa 0,0 l/m 2 min 0 min 630 W/m 22,5 km/h (4 Bft) 100,00 %
08.08.2021 17:26 21,0 C 23,3 C 18,4 C 63 % 1011,3 hPa 0,0 l/m 2 min 0 min 611 W/m 32,2 km/h (5 Bft) 100,00 %
08.08.2021 17:28 20,9 C 22,2 C 17,8 C 63 % 1011,3 hPa 0,0 l/m 0 min 0 min 185 W/m 41,8 km/h (6 Bft) 100,00 %
08.08.2021 17:30 20,7 C 23,3 C 17,8 C 63 % 1011,3 hPa 0,0 l/m 2 min 0 min 303 W/m 32,2 km/h (5 Bft) 100,00 %
08.08.2021 17:32 20,8 C 24,4 C 17,8 C 65 % 1011,3 hPa 0,0 l/m 2 min 0 min 620 W/m 25,7 km/h (4 Bft) 97,83 %
08.08.2021 17:34 20,9 C 24,4 C 18,4 C 64 % 1011,2 hPa 0,0 l/m 2 min 0 min 565 W/m 35,4 km/h (5 Bft) 100,00 %
08.08.2021 17:36 21,0 C 23,9 C 18,4 C 64 % 1011,3 hPa 0,0 l/m 2 min 0 min 465 W/m 19,3 km/h (3 Bft) 100,00 %
08.08.2021 17:38 20,9 C 22,2 C 18,4 C 63 % 1011,3 hPa 0,0 l/m 0 min 0 min 136 W/m 32,2 km/h (5 Bft) 97,87 %
08.08.2021 17:40 20,9 C 21,1 C 17,8 C 63 % 1011,3 hPa 0,0 l/m 0 min 0 min 80 W/m 22,5 km/h (4 Bft) 100,00 %
08.08.2021 17:42 20,6 C 20,0 C 17,3 C 63 % 1011,3 hPa 0,0 l/m 0 min 0 min 61 W/m 16,1 km/h (3 Bft) 100,00 %
08.08.2021 17:44 20,5 C 20,0 C 17,3 C 64 % 1011,3 hPa 0,0 l/m 0 min 0 min 54 W/m 19,3 km/h (3 Bft) 97,83 %
08.08.2021 17:46 20,3 C 19,4 C 17,3 C 64 % 1011,4 hPa 0,0 l/m 0 min 0 min 49 W/m 16,1 km/h (3 Bft) 100,00 %
08.08.2021 17:48 20,2 C 19,4 C 16,7 C 65 % 1011,4 hPa 0,0 l/m 0 min 0 min 40 W/m 16,1 km/h (3 Bft) 100,00 %
08.08.2021 17:50 20,1 C 18,9 C 16,7 C 66 % 1011,5 hPa 0,0 l/m 0 min 0 min 28 W/m 16,1 km/h (3 Bft) 100,00 %
08.08.2021 17:52 20,0 C 18,9 C 16,7 C 66 % 1011,6 hPa 0,0 l/m 0 min 0 min 23 W/m 16,1 km/h (3 Bft) 100,00 %
08.08.2021 17:54 19,9 C 18,9 C 16,7 C 66 % 1011,6 hPa 0,0 l/m 0 min 0 min 25 W/m 19,3 km/h (3 Bft) 95,74 %
08.08.2021 17:56 19,6 C 18,3 C 16,1 C 66 % 1011,7 hPa 0,0 l/m 0 min 0 min 32 W/m 22,5 km/h (4 Bft) 97,83 %
08.08.2021 17:58 19,4 C 18,3 C 16,1 C 66 % 1011,9 hPa 0,0 l/m 0 min 0 min 56 W/m 22,5 km/h (4 Bft) 97,87 %
08.08.2021 18:00 19,0 C 17,8 C 15,6 C 65 % 1011,8 hPa 0,0 l/m 0 min 0 min 82 W/m 25,7 km/h (4 Bft) 95,74 %
08.08.2021 18:02 18,8 C 17,8 C 15,6 C 66 % 1011,9 hPa 0,0 l/m 0 min 2 min 111 W/m 32,2 km/h (5 Bft) 95,74 %
08.08.2021 18:04 18,5 C 17,8 C 15,6 C 67 % 1011,9 hPa 0,0 l/m 0 min 0 min 143 W/m 32,2 km/h (5 Bft) 95,74 %
08.08.2021 18:08 18,3 C 18,3 C 15,6 C 69 % 1011,9 hPa 0,0 l/m 0 min 0 min 184 W/m 16,1 km/h (3 Bft) 95,74 %
08.08.2021 18:10 18,1 C 18,9 C 15,6 C 69 % 1011,9 hPa 0,0 l/m 2 min 0 min 358 W/m 9,7 km/h (2 Bft) 97,87 %
08.08.2021 18:12 18,2 C 20,6 C 15,6 C 70 % 1012,0 hPa 0,0 l/m 2 min 0 min 498 W/m 16,1 km/h (3 Bft) 97,83 %
08.08.2021 18:14 18,3 C 21,7 C 16,1 C 71 % 1012,0 hPa 0,0 l/m 2 min 0 min 433 W/m 19,3 km/h (3 Bft) 95,74 %
08.08.2021 18:16 18,4 C 22,2 C 16,1 C 71 % 1011,9 hPa 0,0 l/m 2 min 0 min 429 W/m 19,3 km/h (3 Bft) 93,62 %
08.08.2021 18:18 18,6 C 23,3 C 16,7 C 70 % 1011,9 hPa 0,0 l/m 2 min 0 min 581 W/m 19,3 km/h (3 Bft) 95,74 %
08.08.2021 18:20 18,8 C 23,3 C 16,7 C 69 % 1011,9 hPa 0,0 l/m 2 min 0 min 525 W/m 25,7 km/h (4 Bft) 93,62 %
08.08.2021 18:22 19,0 C 23,3 C 17,3 C 68 % 1011,9 hPa 0,0 l/m 2 min 0 min 485 W/m 25,7 km/h (4 Bft) 95,74 %
08.08.2021 18:24 19,1 C 23,3 C 17,3 C 67 % 1011,9 hPa 0,0 l/m 2 min 0 min 459 W/m 22,5 km/h (4 Bft) 95,65 %
08.08.2021 18:25 19,2 C 23,9 C 17,3 C 68 % 1011,9 hPa 0,0 l/m 1 min 0 min 461 W/m 25,7 km/h (4 Bft) 97,37 %
08.08.2021 18:28 19,4 C 23,9 C 17,3 C 66 % 1011,9 hPa 0,0 l/m 3 min 0 min 419 W/m 12,9 km/h (3 Bft) 95,65 %
08.08.2021 18:30 19,5 C 23,9 C 17,3 C 65 % 1012,0 hPa 0,0 l/m 2 min 0 min 410 W/m 25,7 km/h (4 Bft) 98,21 %
08.08.2021 18:32 19,5 C 23,3 C 17,3 C 65 % 1011,9 hPa 0,0 l/m 2 min 0 min 404 W/m 16,1 km/h (3 Bft) 95,92 %
08.08.2021 18:34 19,6 C 23,3 C 17,3 C 65 % 1011,9 hPa 0,0 l/m 2 min 0 min 394 W/m 22,5 km/h (4 Bft) 97,87 %
08.08.2021 18:36 19,6 C 23,3 C 17,3 C 65 % 1011,9 hPa 0,0 l/m 2 min 0 min 377 W/m 16,1 km/h (3 Bft) 97,87 %
08.08.2021 18:38 19,6 C 23,3 C 17,3 C 65 % 1011,9 hPa 0,0 l/m 2 min 0 min 374 W/m 16,1 km/h (3 Bft) 97,22 %
08.08.2021 18:40 19,6 C 23,3 C 16,7 C 65 % 1012,0 hPa 0,0 l/m 2 min 0 min 366 W/m 16,1 km/h (3 Bft) 96,36 %
08.08.2021 18:42 19,6 C 23,9 C 16,7 C 66 % 1012,0 hPa 0,0 l/m 2 min 0 min 367 W/m 16,1 km/h (3 Bft) 97,87 %
08.08.2021 18:44 19,7 C 23,9 C 16,7 C 66 % 1012,0 hPa 0,0 l/m 2 min 0 min 364 W/m 12,9 km/h (3 Bft) 97,87 %
08.08.2021 18:46 19,8 C 24,4 C 16,7 C 66 % 1012,0 hPa 0,0 l/m 2 min 0 min 352 W/m 16,1 km/h (3 Bft) 97,83 %
08.08.2021 18:48 19,8 C 24,4 C 16,7 C 65 % 1012,1 hPa 0,0 l/m 2 min 0 min 336 W/m 16,1 km/h (3 Bft) 97,87 %
08.08.2021 18:50 19,7 C 23,9 C 16,7 C 66 % 1012,1 hPa 0,0 l/m 2 min 0 min 323 W/m 12,9 km/h (3 Bft) 97,87 %
08.08.2021 18:52 19,8 C 24,4 C 16,7 C 66 % 1012,1 hPa 0,0 l/m 2 min 0 min 312 W/m 12,9 km/h (3 Bft) 97,87 %
08.08.2021 18:54 19,8 C 23,9 C 16,7 C 66 % 1012,2 hPa 0,0 l/m 2 min 0 min 317 W/m 25,7 km/h (4 Bft) 97,87 %
08.08.2021 18:56 19,8 C 22,2 C 16,7 C 66 % 1012,2 hPa 0,0 l/m 2 min 0 min 259 W/m 12,9 km/h (3 Bft) 97,83 %
08.08.2021 18:58 19,6 C 21,7 C 16,1 C 66 % 1012,3 hPa 0,0 l/m 0 min 0 min 105 W/m 19,3 km/h (3 Bft) 97,87 %
08.08.2021 19:00 19,6 C 21,1 C 16,1 C 67 % 1012,2 hPa 0,0 l/m 2 min 0 min 156 W/m 6,4 km/h (2 Bft) 97,87 %
08.08.2021 19:02 19,5 C 20,0 C 16,1 C 67 % 1012,2 hPa 0,0 l/m 2 min 0 min 189 W/m 12,9 km/h (3 Bft) 95,74 %
08.08.2021 19:04 19,5 C 20,0 C 16,1 C 67 % 1012,3 hPa 0,0 l/m 2 min 0 min 170 W/m 6,4 km/h (2 Bft) 95,74 %
08.08.2021 19:06 19,5 C 19,4 C 16,1 C 67 % 1012,3 hPa 0,0 l/m 2 min 0 min 286 W/m 12,9 km/h (3 Bft) 93,62 %
08.08.2021 19:08 19,5 C 19,4 C 16,1 C 68 % 1012,3 hPa 0,0 l/m 2 min 0 min 266 W/m 6,4 km/h (2 Bft) 95,74 %
08.08.2021 19:10 19,5 C 19,4 C 16,1 C 68 % 1012,3 hPa 0,0 l/m 2 min 0 min 278 W/m 6,4 km/h (2 Bft) 95,65 %
08.08.2021 19:12 19,6 C 19,4 C 16,1 C 68 % 1012,3 hPa 0,0 l/m 2 min 0 min 260 W/m 19,3 km/h (3 Bft) 97,87 %
08.08.2021 19:14 19,6 C 19,4 C 16,1 C 68 % 1012,3 hPa 0,0 l/m 2 min 0 min 244 W/m 12,9 km/h (3 Bft) 97,87 %
08.08.2021 19:16 19,6 C 19,4 C 16,1 C 68 % 1012,3 hPa 0,0 l/m 2 min 0 min 228 W/m 16,1 km/h (3 Bft) 97,87 %
08.08.2021 19:18 19,6 C 18,9 C 16,1 C 68 % 1012,3 hPa 0,0 l/m 2 min 0 min 208 W/m 12,9 km/h (3 Bft) 97,87 %
08.08.2021 19:20 19,5 C 18,9 C 16,1 C 68 % 1012,3 hPa 0,0 l/m 0 min 0 min 107 W/m 12,9 km/h (3 Bft) 97,83 %
08.08.2021 19:22 19,5 C 18,9 C 16,1 C 68 % 1012,3 hPa 0,0 l/m 0 min 0 min 58 W/m 16,1 km/h (3 Bft) 97,87 %
08.08.2021 19:24 19,5 C 18,9 C 16,1 C 68 % 1012,3 hPa 0,0 l/m 0 min 0 min 52 W/m 3,2 km/h (1 Bft) 95,74 %
08.08.2021 19:26 19,5 C 18,9 C 16,1 C 68 % 1012,3 hPa 0,0 l/m 0 min 0 min 51 W/m 12,9 km/h (3 Bft) 93,62 %
08.08.2021 19:28 19,5 C 18,9 C 16,1 C 68 % 1012,4 hPa 0,0 l/m 0 min 0 min 50 W/m 12,9 km/h (3 Bft) 97,87 %
08.08.2021 19:30 19,5 C 18,9 C 16,1 C 68 % 1012,3 hPa 0,0 l/m 0 min 0 min 49 W/m 9,7 km/h (2 Bft) 95,74 %
08.08.2021 19:32 19,4 C 18,9 C 16,1 C 68 % 1012,4 hPa 0,0 l/m 0 min 0 min 49 W/m 12,9 km/h (3 Bft) 97,83 %
08.08.2021 19:34 19,4 C 18,9 C 16,1 C 68 % 1012,4 hPa 0,0 l/m 0 min 0 min 46 W/m 16,1 km/h (3 Bft) 97,87 %
08.08.2021 19:36 19,4 C 18,9 C 16,1 C 67 % 1012,4 hPa 0,0 l/m 0 min 0 min 43 W/m 16,1 km/h (3 Bft) 97,87 %
08.08.2021 19:38 19,4 C 18,9 C 16,1 C 67 % 1012,4 hPa 0,0 l/m 0 min 0 min 45 W/m 9,7 km/h (2 Bft) 97,87 %
08.08.2021 19:40 19,4 C 18,9 C 16,1 C 68 % 1012,4 hPa 0,0 l/m 0 min 0 min 52 W/m 6,4 km/h (2 Bft) 97,87 %
08.08.2021 19:42 19,3 C 18,9 C 16,1 C 68 % 1012,4 hPa 0,0 l/m 0 min 0 min 63 W/m 12,9 km/h (3 Bft) 95,74 %
08.08.2021 19:44 19,3 C 18,3 C 16,1 C 68 % 1012,4 hPa 0,0 l/m 0 min 0 min 60 W/m 16,1 km/h (3 Bft) 95,65 %
08.08.2021 19:46 19,3 C 18,3 C 16,1 C 67 % 1012,5 hPa 0,0 l/m 0 min 0 min 53 W/m 6,4 km/h (2 Bft) 97,87 %
08.08.2021 19:48 19,3 C 18,3 C 16,1 C 67 % 1012,5 hPa 0,0 l/m 0 min 0 min 44 W/m 6,4 km/h (2 Bft) 100,00 %
08.08.2021 19:50 19,3 C 18,3 C 16,1 C 68 % 1012,5 hPa 0,0 l/m 0 min 0 min 36 W/m 6,4 km/h (2 Bft) 100,00 %
08.08.2021 19:52 19,2 C 18,3 C 16,1 C 68 % 1012,6 hPa 0,0 l/m 0 min 0 min 32 W/m 16,1 km/h (3 Bft) 100,00 %
08.08.2021 19:54 19,2 C 18,3 C 16,1 C 67 % 1012,6 hPa 0,0 l/m 0 min 0 min 29 W/m 6,4 km/h (2 Bft) 100,00 %
08.08.2021 19:56 19,1 C 18,3 C 16,1 C 67 % 1012,6 hPa 0,0 l/m 0 min 0 min 24 W/m 12,9 km/h (3 Bft) 97,83 %
08.08.2021 19:58 19,1 C 18,3 C 16,1 C 67 % 1012,7 hPa 0,0 l/m 0 min 0 min 25 W/m 12,9 km/h (3 Bft) 100,00 %
08.08.2021 20:00 19,1 C 18,3 C 15,6 C 67 % 1012,7 hPa 0,0 l/m 0 min 0 min 32 W/m 22,5 km/h (4 Bft) 100,00 %
08.08.2021 20:02 19,0 C 18,3 C 15,6 C 67 % 1012,9 hPa 0,0 l/m 0 min 0 min 34 W/m 25,7 km/h (4 Bft) 95,74 %
08.08.2021 20:04 19,0 C 18,3 C 15,6 C 68 % 1012,8 hPa 0,0 l/m 0 min 0 min 30 W/m 35,4 km/h (5 Bft) 95,74 %
08.08.2021 20:06 18,9 C 17,8 C 15,6 C 68 % 1012,9 hPa 0,0 l/m 0 min 0 min 29 W/m 29,0 km/h (5 Bft) 97,87 %
08.08.2021 20:08 18,8 C 17,8 C 15,6 C 68 % 1013,0 hPa 0,0 l/m 0 min 0 min 32 W/m 29,0 km/h (5 Bft) 97,83 %
08.08.2021 20:10 18,7 C 17,8 C 15,6 C 69 % 1013,0 hPa 0,0 l/m 0 min 0 min 30 W/m 22,5 km/h (4 Bft) 97,87 %
08.08.2021 20:12 18,6 C 17,8 C 15,6 C 70 % 1012,9 hPa 0,0 l/m 0 min 0 min 26 W/m 29,0 km/h (5 Bft) 95,74 %
08.08.2021 20:14 18,5 C 17,8 C 15,6 C 70 % 1012,9 hPa 0,0 l/m 0 min 0 min 23 W/m 25,7 km/h (4 Bft) 95,74 %
08.08.2021 20:16 18,4 C 17,2 C 15,6 C 71 % 1012,9 hPa 0,0 l/m 0 min 0 min 19 W/m 29,0 km/h (5 Bft) 95,74 %
08.08.2021 20:18 18,3 C 17,2 C 15,0 C 71 % 1012,9 hPa 0,0 l/m 0 min 0 min 17 W/m 19,3 km/h (3 Bft) 95,74 %
08.08.2021 20:20 18,3 C 17,2 C 15,0 C 71 % 1012,9 hPa 0,0 l/m 0 min 0 min 16 W/m 16,1 km/h (3 Bft) 97,83 %
08.08.2021 20:22 18,1 C 17,2 C 15,0 C 71 % 1012,9 hPa 0,0 l/m 0 min 0 min 16 W/m 22,5 km/h (4 Bft) 97,87 %
08.08.2021 20:24 18,1 C 17,2 C 15,0 C 71 % 1012,9 hPa 0,0 l/m 0 min 0 min 16 W/m 12,9 km/h (3 Bft) 97,87 %
08.08.2021 20:26 18,0 C 16,7 C 15,0 C 71 % 1012,9 hPa 0,0 l/m 0 min 0 min 16 W/m 19,3 km/h (3 Bft) 97,87 %
08.08.2021 20:28 17,9 C 16,7 C 14,5 C 72 % 1012,9 hPa 0,0 l/m 0 min 0 min 18 W/m 19,3 km/h (3 Bft) 97,87 %
08.08.2021 20:30 17,8 C 16,7 C 14,5 C 73 % 1012,9 hPa 0,0 l/m 0 min 0 min 16 W/m 12,9 km/h (3 Bft) 97,87 %
08.08.2021 20:32 17,8 C 16,7 C 14,5 C 73 % 1013,0 hPa 0,0 l/m 0 min 0 min 15 W/m 22,5 km/h (4 Bft) 97,83 %
08.08.2021 20:34 17,6 C 16,7 C 14,5 C 74 % 1012,9 hPa 0,0 l/m 0 min 0 min 13 W/m 12,9 km/h (3 Bft) 100,00 %
08.08.2021 20:36 17,6 C 16,7 C 14,5 C 74 % 1013,0 hPa 0,0 l/m 0 min 0 min 12 W/m 12,9 km/h (3 Bft) 100,00 %
08.08.2021 20:38 17,5 C 16,7 C 14,5 C 74 % 1013,1 hPa 0,0 l/m 0 min 0 min 11 W/m 16,1 km/h (3 Bft) 97,87 %
08.08.2021 20:40 17,4 C 16,1 C 14,5 C 74 % 1013,1 hPa 0,0 l/m 0 min 0 min 11 W/m 16,1 km/h (3 Bft) 100,00 %
08.08.2021 20:42 17,4 C 16,1 C 13,9 C 75 % 1013,1 hPa 0,0 l/m 0 min 0 min 9 W/m 16,1 km/h (3 Bft) 97,87 %
08.08.2021 20:44 17,3 C 16,1 C 13,9 C 75 % 1013,1 hPa 0,0 l/m 0 min 0 min 9 W/m 12,9 km/h (3 Bft) 97,83 %
08.08.2021 20:46 17,2 C 16,1 C 13,9 C 75 % 1013,1 hPa 0,0 l/m 0 min 0 min 9 W/m 16,1 km/h (3 Bft) 97,87 %
08.08.2021 20:48 17,1 C 16,1 C 13,9 C 76 % 1013,2 hPa 0,0 l/m 0 min 0 min 9 W/m 16,1 km/h (3 Bft) 100,00 %
08.08.2021 20:50 17,1 C 16,1 C 13,9 C 76 % 1013,1 hPa 0,0 l/m 0 min 0 min 9 W/m 19,3 km/h (3 Bft) 97,87 %
08.08.2021 20:52 17,0 C 16,1 C 13,9 C 76 % 1013,2 hPa 0,0 l/m 0 min 0 min 9 W/m 12,9 km/h (3 Bft) 100,00 %
08.08.2021 20:54 17,0 C 16,1 C 13,9 C 76 % 1013,3 hPa 0,0 l/m 0 min 0 min 7 W/m 16,1 km/h (3 Bft) 100,00 %
08.08.2021 20:56 16,9 C 15,6 C 13,9 C 76 % 1013,3 hPa 0,0 l/m 0 min 0 min 7 W/m 12,9 km/h (3 Bft) 95,65 %
08.08.2021 20:58 16,9 C 15,6 C 13,9 C 77 % 1013,3 hPa 0,0 l/m 0 min 0 min 7 W/m 19,3 km/h (3 Bft) 100,00 %
08.08.2021 21:00 16,9 C 15,6 C 13,9 C 77 % 1013,3 hPa 0,0 l/m 0 min 0 min 7 W/m 9,7 km/h (2 Bft) 100,00 %
08.08.2021 21:02 16,8 C 15,6 C 13,9 C 77 % 1013,3 hPa 0,0 l/m 0 min 0 min 5 W/m 16,1 km/h (3 Bft) 97,87 %
08.08.2021 21:04 16,8 C 15,6 C 13,9 C 77 % 1013,3 hPa 0,0 l/m 0 min 0 min 5 W/m 6,4 km/h (2 Bft) 97,87 %
08.08.2021 21:06 16,7 C 15,6 C 13,9 C 77 % 1013,3 hPa 0,0 l/m 0 min 0 min 0 W/m 12,9 km/h (3 Bft) 100,00 %
08.08.2021 21:08 16,7 C 16,1 C 13,4 C 78 % 1013,4 hPa 0,0 l/m 0 min 0 min 0 W/m 6,4 km/h (2 Bft) 100,00 %
08.08.2021 21:10 16,7 C 16,1 C 13,4 C 79 % 1013,4 hPa 0,0 l/m 0 min 2 min 0 W/m 12,9 km/h (3 Bft) 95,74 %
08.08.2021 21:12 16,6 C 15,6 C 13,4 C 79 % 1013,4 hPa 0,0 l/m 0 min 2 min 0 W/m 9,7 km/h (2 Bft) 97,87 %
08.08.2021 21:14 16,6 C 15,6 C 12,8 C 80 % 1013,5 hPa 0,0 l/m 0 min 2 min 0 W/m 3,2 km/h (1 Bft) 97,87 %
08.08.2021 21:16 16,6 C 15,6 C 12,8 C 80 % 1013,5 hPa 0,0 l/m 0 min 2 min 0 W/m 3,2 km/h (1 Bft) 97,87 %
08.08.2021 21:18 16,6 C 15,6 C 12,3 C 81 % 1013,5 hPa 0,0 l/m 0 min 2 min 0 W/m 6,4 km/h (2 Bft) 97,83 %
08.08.2021 21:20 16,6 C 15,6 C 12,3 C 81 % 1013,6 hPa 0,0 l/m 0 min 2 min 0 W/m 3,2 km/h (1 Bft) 95,74 %
08.08.2021 21:22 16,6 C 15,6 C 12,3 C 81 % 1013,5 hPa 0,0 l/m 0 min 2 min 0 W/m 3,2 km/h (1 Bft) 97,87 %
08.08.2021 21:24 16,5 C 15,6 C 12,8 C 82 % 1013,6 hPa 0,0 l/m 0 min 0 min 0 W/m 3,2 km/h (1 Bft) 97,87 %
08.08.2021 21:26 16,5 C 15,6 C 12,8 C 82 % 1013,6 hPa 0,0 l/m 0 min 0 min 0 W/m 12,9 km/h (3 Bft) 95,74 %
08.08.2021 21:28 16,5 C 15,6 C 12,8 C 82 % 1013,6 hPa 0,0 l/m 0 min 0 min 0 W/m 6,4 km/h (2 Bft) 97,87 %
08.08.2021 21:30 16,4 C 15,6 C 12,8 C 82 % 1013,6 hPa 0,0 l/m 0 min 0 min 0 W/m 6,4 km/h (2 Bft) 97,83 %
08.08.2021 21:32 16,4 C 15,6 C 12,8 C 81 % 1013,6 hPa 0,0 l/m 0 min 0 min 0 W/m 12,9 km/h (3 Bft) 97,87 %
08.08.2021 21:34 16,4 C 15,6 C 12,8 C 82 % 1013,7 hPa 0,0 l/m 0 min 0 min 0 W/m 6,4 km/h (2 Bft) 97,87 %
08.08.2021 21:36 16,4 C 15,6 C 12,8 C 81 % 1013,7 hPa 0,0 l/m 0 min 0 min 0 W/m 19,3 km/h (3 Bft) 97,87 %
08.08.2021 21:38 16,3 C 15,6 C 12,8 C 82 % 1013,7 hPa 0,0 l/m 0 min 0 min 0 W/m 9,7 km/h (2 Bft) 97,87 %
08.08.2021 21:40 16,3 C 15,6 C 12,8 C 82 % 1013,8 hPa 0,0 l/m 0 min 0 min 0 W/m 6,4 km/h (2 Bft) 97,87 %
08.08.2021 21:42 16,3 C 15,6 C 12,8 C 82 % 1013,8 hPa 0,0 l/m 0 min 0 min 0 W/m 6,4 km/h (2 Bft) 97,83 %
08.08.2021 21:44 16,3 C 15,6 C 12,8 C 82 % 1013,7 hPa 0,0 l/m 0 min 0 min 0 W/m 6,4 km/h (2 Bft) 97,87 %
08.08.2021 21:46 16,3 C 15,6 C 12,8 C 82 % 1013,8 hPa 0,0 l/m 0 min 2 min 0 W/m 3,2 km/h (1 Bft) 97,87 %
08.08.2021 21:48 16,3 C 15,6 C 12,8 C 82 % 1013,8 hPa 0,0 l/m 0 min 2 min 0 W/m 3,2 km/h (1 Bft) 97,87 %
08.08.2021 21:50 16,3 C 15,6 C 12,8 C 82 % 1013,9 hPa 0,0 l/m 0 min 0 min 0 W/m 3,2 km/h (1 Bft) 97,87 %
08.08.2021 21:52 16,3 C 15,6 C 12,8 C 82 % 1013,9 hPa 0,0 l/m 0 min 0 min 0 W/m 6,4 km/h (2 Bft) 95,74 %
08.08.2021 21:54 16,3 C 15,6 C 12,8 C 82 % 1013,8 hPa 0,0 l/m 0 min 0 min 0 W/m 6,4 km/h (2 Bft) 93,48 %
08.08.2021 21:56 16,3 C 15,6 C 12,8 C 83 % 1013,9 hPa 0,0 l/m 0 min 0 min 0 W/m 3,2 km/h (1 Bft) 95,74 %
08.08.2021 21:58 16,3 C 15,6 C 12,8 C 83 % 1013,9 hPa 0,0 l/m 0 min 0 min 0 W/m 3,2 km/h (1 Bft) 93,62 %
08.08.2021 22:00 16,3 C 15,0 C 12,8 C 83 % 1013,9 hPa 0,0 l/m 0 min 0 min 0 W/m 6,4 km/h (2 Bft) 93,62 %
08.08.2021 22:02 16,2 C 15,0 C 12,8 C 83 % 1013,9 hPa 0,0 l/m 0 min 0 min 0 W/m 9,7 km/h (2 Bft) 95,74 %
08.08.2021 22:04 16,1 C 15,0 C 12,8 C 83 % 1013,9 hPa 0,0 l/m 0 min 0 min 0 W/m 6,4 km/h (2 Bft) 95,74 %
08.08.2021 22:06 16,1 C 15,0 C 12,8 C 83 % 1014,0 hPa 0,0 l/m 0 min 0 min 0 W/m 9,7 km/h (2 Bft) 95,65 %
08.08.2021 22:08 16,1 C 15,0 C 12,8 C 84 % 1014,0 hPa 0,0 l/m 0 min 0 min 0 W/m 6,4 km/h (2 Bft) 95,74 %
08.08.2021 22:10 16,1 C 15,0 C 12,8 C 84 % 1014,0 hPa 0,0 l/m 0 min 0 min 0 W/m 12,9 km/h (3 Bft) 95,74 %
08.08.2021 22:12 16,0 C 15,0 C 12,8 C 84 % 1014,1 hPa 0,0 l/m 0 min 0 min 0 W/m 9,7 km/h (2 Bft) 97,87 %
08.08.2021 22:14 16,0 C 15,0 C 12,8 C 84 % 1014,2 hPa 0,0 l/m 0 min 0 min 0 W/m 6,4 km/h (2 Bft) 95,74 %
08.08.2021 22:16 16,0 C 15,0 C 12,8 C 84 % 1014,2 hPa 0,0 l/m 0 min 0 min 0 W/m 6,4 km/h (2 Bft) 95,74 %
08.08.2021 22:18 16,0 C 15,0 C 12,8 C 85 % 1014,1 hPa 0,0 l/m 0 min 0 min 0 W/m 6,4 km/h (2 Bft) 93,48 %
08.08.2021 22:20 16,0 C 15,0 C 12,8 C 85 % 1014,2 hPa 0,0 l/m 0 min 0 min 0 W/m 3,2 km/h (1 Bft) 95,74 %
08.08.2021 22:22 16,0 C 15,0 C 12,8 C 85 % 1014,3 hPa 0,0 l/m 0 min 0 min 0 W/m 3,2 km/h (1 Bft) 95,74 %
08.08.2021 22:24 15,9 C 15,0 C 12,8 C 85 % 1014,3 hPa 0,0 l/m 0 min 0 min 0 W/m 6,4 km/h (2 Bft) 97,87 %
08.08.2021 22:26 15,9 C 15,0 C 12,8 C 85 % 1014,2 hPa 0,0 l/m 0 min 0 min 0 W/m 6,4 km/h (2 Bft) 97,87 %
08.08.2021 22:28 15,9 C 15,0 C 12,8 C 86 % 1014,2 hPa 0,0 l/m 0 min 0 min 0 W/m 6,4 km/h (2 Bft) 97,87 %
08.08.2021 22:30 15,9 C 15,0 C 12,8 C 86 % 1014,3 hPa 0,0 l/m 0 min 0 min 0 W/m 6,4 km/h (2 Bft) 97,83 %
08.08.2021 22:32 15,9 C 15,0 C 13,4 C 86 % 1014,2 hPa 0,0 l/m 0 min 0 min 0 W/m 9,7 km/h (2 Bft) 95,74 %
08.08.2021 22:34 15,9 C 15,0 C 13,4 C 86 % 1014,2 hPa 0,0 l/m 0 min 0 min 0 W/m 12,9 km/h (3 Bft) 97,87 %
08.08.2021 22:36 15,8 C 15,0 C 13,4 C 86 % 1014,2 hPa 0,0 l/m 0 min 0 min 0 W/m 19,3 km/h (3 Bft) 95,74 %
08.08.2021 22:38 15,8 C 15,0 C 13,4 C 86 % 1014,3 hPa 0,0 l/m 0 min 0 min 0 W/m 9,7 km/h (2 Bft) 97,87 %
08.08.2021 22:40 15,8 C 15,0 C 13,4 C 86 % 1014,3 hPa 0,0 l/m 0 min 0 min 0 W/m 9,7 km/h (2 Bft) 97,87 %
08.08.2021 22:42 15,8 C 15,0 C 13,4 C 86 % 1014,3 hPa 0,0 l/m 0 min 0 min 0 W/m 9,7 km/h (2 Bft) 97,83 %
08.08.2021 22:44 15,8 C 15,0 C 13,4 C 86 % 1014,3 hPa 0,0 l/m 0 min 0 min 0 W/m 12,9 km/h (3 Bft) 97,87 %
08.08.2021 22:46 15,8 C 15,0 C 13,4 C 85 % 1014,4 hPa 0,0 l/m 0 min 0 min 0 W/m 12,9 km/h (3 Bft) 97,87 %
08.08.2021 22:48 15,8 C 15,0 C 13,4 C 86 % 1014,4 hPa 0,0 l/m 0 min 0 min 0 W/m 12,9 km/h (3 Bft) 100,00 %
08.08.2021 22:50 15,8 C 15,0 C 13,4 C 86 % 1014,4 hPa 0,0 l/m 0 min 0 min 0 W/m 12,9 km/h (3 Bft) 100,00 %
08.08.2021 22:52 15,8 C 15,0 C 13,4 C 86 % 1014,4 hPa 0,0 l/m 0 min 0 min 0 W/m 12,9 km/h (3 Bft) 100,00 %
08.08.2021 22:54 15,8 C 15,0 C 13,4 C 86 % 1014,4 hPa 0,0 l/m 0 min 0 min 0 W/m 16,1 km/h (3 Bft) 97,87 %
08.08.2021 22:56 15,8 C 15,0 C 13,4 C 85 % 1014,4 hPa 0,0 l/m 0 min 0 min 0 W/m 9,7 km/h (2 Bft) 100,00 %
08.08.2021 22:58 15,8 C 15,0 C 13,4 C 86 % 1014,4 hPa 0,0 l/m 0 min 0 min 0 W/m 12,9 km/h (3 Bft) 100,00 %
08.08.2021 23:00 15,8 C 15,0 C 13,4 C 86 % 1014,4 hPa 0,0 l/m 0 min 0 min 0 W/m 16,1 km/h (3 Bft) 100,00 %
08.08.2021 23:02 15,8 C 15,0 C 13,4 C 85 % 1014,4 hPa 0,0 l/m 0 min 0 min 0 W/m 6,4 km/h (2 Bft) 100,00 %
08.08.2021 23:04 15,8 C 15,0 C 13,4 C 85 % 1014,4 hPa 0,0 l/m 0 min 0 min 0 W/m 16,1 km/h (3 Bft) 100,00 %
08.08.2021 23:06 15,8 C 15,0 C 13,4 C 85 % 1014,3 hPa 0,0 l/m 0 min 0 min 0 W/m 6,4 km/h (2 Bft) 100,00 %
08.08.2021 23:08 15,8 C 15,0 C 13,4 C 85 % 1014,4 hPa 0,0 l/m 0 min 0 min 0 W/m 12,9 km/h (3 Bft) 100,00 %
08.08.2021 23:10 15,8 C 15,0 C 13,4 C 85 % 1014,4 hPa 0,0 l/m 0 min 0 min 0 W/m 9,7 km/h (2 Bft) 100,00 %
08.08.2021 23:12 15,8 C 15,0 C 13,4 C 85 % 1014,4 hPa 0,0 l/m 0 min 0 min 0 W/m 6,4 km/h (2 Bft) 95,74 %
08.08.2021 23:14 15,8 C 15,0 C 13,4 C 85 % 1014,4 hPa 0,0 l/m 0 min 0 min 0 W/m 6,4 km/h (2 Bft) 100,00 %
08.08.2021 23:16 15,8 C 15,0 C 13,4 C 85 % 1014,4 hPa 0,0 l/m 0 min 0 min 0 W/m 12,9 km/h (3 Bft) 100,00 %
08.08.2021 23:18 15,8 C 15,0 C 13,4 C 85 % 1014,4 hPa 0,0 l/m 0 min 0 min 0 W/m 12,9 km/h (3 Bft) 97,87 %
08.08.2021 23:20 15,8 C 15,0 C 13,4 C 85 % 1014,4 hPa 0,0 l/m 0 min 0 min 0 W/m 9,7 km/h (2 Bft) 100,00 %
08.08.2021 23:22 15,8 C 15,0 C 13,4 C 85 % 1014,4 hPa 0,0 l/m 0 min 0 min 0 W/m 12,9 km/h (3 Bft) 100,00 %
08.08.2021 23:24 15,8 C 15,0 C 13,4 C 85 % 1014,4 hPa 0,0 l/m 0 min 0 min 0 W/m 12,9 km/h (3 Bft) 100,00 %
08.08.2021 23:26 15,8 C 15,0 C 13,4 C 85 % 1014,4 hPa 0,0 l/m 0 min 0 min 0 W/m 6,4 km/h (2 Bft) 100,00 %
08.08.2021 23:28 15,8 C 15,0 C 13,4 C 85 % 1014,4 hPa 0,0 l/m 0 min 0 min 0 W/m 12,9 km/h (3 Bft) 97,87 %
08.08.2021 23:30 15,8 C 15,0 C 13,4 C 85 % 1014,4 hPa 0,0 l/m 0 min 0 min 0 W/m 12,9 km/h (3 Bft) 100,00 %
08.08.2021 23:32 15,8 C 15,0 C 13,4 C 85 % 1014,4 hPa 0,0 l/m 0 min 0 min 0 W/m 6,4 km/h (2 Bft) 97,87 %
08.08.2021 23:34 15,8 C 15,0 C 13,4 C 86 % 1014,3 hPa 0,0 l/m 0 min 0 min 0 W/m 6,4 km/h (2 Bft) 97,87 %
08.08.2021 23:36 15,8 C 15,0 C 13,4 C 86 % 1014,3 hPa 0,0 l/m 0 min 0 min 0 W/m 6,4 km/h (2 Bft) 97,87 %
08.08.2021 23:38 15,8 C 15,0 C 13,4 C 86 % 1014,3 hPa 0,0 l/m 0 min 0 min 0 W/m 12,9 km/h (3 Bft) 100,00 %
08.08.2021 23:40 15,8 C 15,0 C 13,4 C 86 % 1014,4 hPa 0,0 l/m 0 min 0 min 0 W/m 9,7 km/h (2 Bft) 100,00 %
08.08.2021 23:42 15,8 C 15,0 C 13,4 C 86 % 1014,4 hPa 0,0 l/m 0 min 0 min 0 W/m 6,4 km/h (2 Bft) 97,83 %
08.08.2021 23:44 15,8 C 15,0 C 13,4 C 86 % 1014,3 hPa 0,0 l/m 0 min 0 min 0 W/m 6,4 km/h (2 Bft) 100,00 %
08.08.2021 23:46 15,8 C 15,0 C 13,4 C 86 % 1014,3 hPa 0,0 l/m 0 min 0 min 0 W/m 9,7 km/h (2 Bft) 95,74 %
08.08.2021 23:48 15,8 C 15,0 C 13,4 C 86 % 1014,3 hPa 0,0 l/m 0 min 0 min 0 W/m 6,4 km/h (2 Bft) 95,83 %
08.08.2021 23:50 15,8 C 15,0 C 13,4 C 86 % 1014,3 hPa 0,0 l/m 0 min 0 min 0 W/m 6,4 km/h (2 Bft) 93,62 %
08.08.2021 23:52 15,8 C 15,0 C 13,4 C 86 % 1014,3 hPa 0,0 l/m 0 min 0 min 0 W/m 6,4 km/h (2 Bft) 95,74 %
08.08.2021 23:54 15,8 C 15,0 C 13,4 C 86 % 1014,3 hPa 0,0 l/m 0 min 0 min 0 W/m 3,2 km/h (1 Bft) 93,48 %
08.08.2021 23:56 15,8 C 15,0 C 13,4 C 86 % 1014,3 hPa 0,0 l/m 0 min 0 min 0 W/m 6,4 km/h (2 Bft) 95,74 %
08.08.2021 23:58 15,8 C 15,0 C 13,4 C 86 % 1014,3 hPa 0,0 l/m 0 min 0 min 0 W/m 6,4 km/h (2 Bft) 95,74 %
_ Min-Zeit 06:56 05:54 02:00 16:44 00:00 - - - - 19:24 00:08
Minimum _ 15,1 C 14,4 C 12,3 C 59 % 1003,4 hPa - - - - 3,2 km/h (1 Bft) 91,30 %
_ Max-Zeit 16:36 16:32 16:30 02:12 22:46 13:42 12:08 01:36 14:06 13:20 00:54
Maximum _ 21,4 C 26,1 C 18,4 C 88 % 1014,4 hPa 0,4 l/m 4 min 2 min 1041 W/m 70,8 km/h
S (8 Bft)
100,00 %
Durchschnitt _ 17,6 C 17,7 C 14,9 C 77 % 1009,1 hPa #0,8 l/m #5:28 h #1:16 h 296 W/m 21,8 km/h (4 Bft) 97,61 %
© 2021 W. Hausmann